Time,TemperatureF,DewpointF,PressureIn,WindDirection,WindDirectionDegrees,WindSpeedMPH,WindSpeedGustMPH,Humidity,HourlyPrecipIn,Conditions,Clouds,dailyrainin,SolarRadiationWatts/m^2,SoftwareType,DateUTC
2013-05-08 00:00:00,61.2,43.9,29.97,WNW,286,5.0,0.0,53,0.00,,,0.00,0,WeatherHawk,2013-05-08 07:00:00,
2013-05-08 00:04:00,61.0,43.7,29.97,WNW,299,6.0,0.0,53,0.00,,,0.00,0,WeatherHawk,2013-05-08 07:04:00,
2013-05-08 00:05:00,61.0,44.2,29.97,NW,304,5.0,0.0,54,0.00,,,0.00,0,WeatherHawk,2013-05-08 07:05:00,
2013-05-08 00:06:00,61.0,43.7,29.97,WNW,286,5.0,0.0,53,0.00,,,0.00,0,WeatherHawk,2013-05-08 07:06:00,
2013-05-08 00:07:00,61.0,44.2,29.97,West,280,4.0,0.0,54,0.00,,,0.00,0,WeatherHawk,2013-05-08 07:07:00,
2013-05-08 00:08:00,61.0,44.2,29.97,WNW,289,4.0,0.0,54,0.00,,,0.00,0,WeatherHawk,2013-05-08 07:08:00,
2013-05-08 00:13:00,60.8,44.0,29.97,West,270,4.0,0.0,54,0.00,,,0.00,0,WeatherHawk,2013-05-08 07:13:00,
2013-05-08 00:14:00,60.6,44.4,29.97,WNW,285,4.0,0.0,55,0.00,,,0.00,0,WeatherHawk,2013-05-08 07:14:00,
2013-05-08 00:15:00,60.6,44.4,29.97,NW,309,3.0,0.0,55,0.00,,,0.00,0,WeatherHawk,2013-05-08 07:15:00,
2013-05-08 00:18:00,60.4,44.2,29.97,NW,323,2.0,0.0,55,0.00,,,0.00,0,WeatherHawk,2013-05-08 07:18:00,
2013-05-08 00:19:00,60.4,44.2,29.97,NNW,339,2.0,0.0,55,0.00,,,0.00,0,WeatherHawk,2013-05-08 07:19:00,
2013-05-08 00:25:00,60.4,43.7,29.98,North,359,2.0,0.0,54,0.00,,,0.00,0,WeatherHawk,2013-05-08 07:25:00,
2013-05-08 00:26:00,60.4,43.7,29.98,NE,43,2.0,0.0,54,0.00,,,0.00,0,WeatherHawk,2013-05-08 07:26:00,
2013-05-08 00:31:00,60.6,43.4,29.98,NE,45,4.0,0.0,53,0.00,,,0.00,0,WeatherHawk,2013-05-08 07:31:00,
2013-05-08 00:32:00,60.6,43.4,29.98,NNE,14,2.0,0.0,53,0.00,,,0.00,0,WeatherHawk,2013-05-08 07:32:00,
2013-05-08 00:37:00,61.2,43.4,29.98,WNW,282,5.0,0.0,52,0.00,,,0.00,0,WeatherHawk,2013-05-08 07:37:00,
2013-05-08 00:38:00,61.3,43.6,29.98,NW,324,2.0,0.0,52,0.00,,,0.00,0,WeatherHawk,2013-05-08 07:38:00,
2013-05-08 00:39:00,61.3,43.1,29.98,WNW,296,2.0,0.0,51,0.00,,,0.00,0,WeatherHawk,2013-05-08 07:39:00,
2013-05-08 00:43:00,61.5,43.2,29.98,NW,307,2.0,6.0,51,0.00,,,0.00,0,WeatherHawk,2013-05-08 07:43:00,
2013-05-08 00:44:00,61.5,43.2,29.97,NW,326,3.0,6.0,51,0.00,,,0.00,0,WeatherHawk,2013-05-08 07:44:00,
2013-05-08 00:48:00,61.5,43.2,29.97,NNW,335,3.0,-999.0,51,0.00,,,0.00,0,WeatherHawk,2013-05-08 07:48:00,
2013-05-08 00:52:00,61.7,42.9,29.97,WNW,296,4.0,0.0,50,0.00,,,0.00,0,WeatherHawk,2013-05-08 07:52:00,
2013-05-08 00:53:00,61.7,42.9,29.97,WNW,296,4.0,0.0,50,0.00,,,0.00,0,WeatherHawk,2013-05-08 07:53:00,
2013-05-08 00:54:00,61.9,43.0,29.97,NNW,334,4.0,0.0,50,0.00,,,0.00,0,WeatherHawk,2013-05-08 07:54:00,
2013-05-08 00:56:00,61.9,43.0,29.97,NNW,329,6.0,0.0,50,0.00,,,0.00,0,WeatherHawk,2013-05-08 07:56:00,
2013-05-08 00:58:00,61.9,43.0,29.97,NNW,329,6.0,0.0,50,0.00,,,0.00,0,WeatherHawk,2013-05-08 07:58:00,
2013-05-08 00:59:00,61.7,42.9,29.97,NNW,332,4.0,0.0,50,0.00,,,0.00,0,WeatherHawk,2013-05-08 07:59:00,
2013-05-08 01:01:00,61.7,42.9,29.97,NW,317,4.0,6.0,50,0.00,,,0.00,0,WeatherHawk,2013-05-08 08:01:00,
2013-05-08 01:03:00,61.7,42.9,29.97,NW,317,4.0,-999.0,50,0.00,,,0.00,0,WeatherHawk,2013-05-08 08:03:00,
2013-05-08 01:05:00,61.7,42.9,29.97,NW,308,4.0,6.0,50,0.00,,,0.00,0,WeatherHawk,2013-05-08 08:05:00,
2013-05-08 01:07:00,61.7,42.9,29.97,WNW,301,4.0,6.0,50,0.00,,,0.00,1,WeatherHawk,2013-05-08 08:07:00,
2013-05-08 01:08:00,61.7,42.9,29.97,WNW,291,5.0,6.0,50,0.00,,,0.00,0,WeatherHawk,2013-05-08 08:08:00,
2013-05-08 01:11:00,61.7,42.9,29.97,WNW,290,8.0,0.0,50,0.00,,,0.00,0,WeatherHawk,2013-05-08 08:11:00,
2013-05-08 01:12:00,61.7,42.9,29.97,WNW,297,6.0,0.0,50,0.00,,,0.00,0,WeatherHawk,2013-05-08 08:12:00,
2013-05-08 01:13:00,61.7,42.9,29.97,WNW,301,4.0,0.0,50,0.00,,,0.00,0,WeatherHawk,2013-05-08 08:13:00,
2013-05-08 01:17:00,61.3,43.1,29.97,WNW,301,4.0,0.0,51,0.00,,,0.00,1,WeatherHawk,2013-05-08 08:17:00,
2013-05-08 01:18:00,61.3,43.1,29.97,WNW,301,4.0,0.0,51,0.00,,,0.00,1,WeatherHawk,2013-05-08 08:18:00,
2013-05-08 01:20:00,61.0,43.2,29.97,NW,311,3.0,0.0,52,0.00,,,0.00,0,WeatherHawk,2013-05-08 08:20:00,
2013-05-08 01:25:00,60.8,43.1,29.97,NNW,337,4.0,0.0,52,0.00,,,0.00,0,WeatherHawk,2013-05-08 08:25:00,
2013-05-08 01:26:00,60.8,43.1,29.97,NNW,339,4.0,0.0,52,0.00,,,0.00,0,WeatherHawk,2013-05-08 08:26:00,
2013-05-08 01:27:00,60.8,43.1,29.97,NNW,348,5.0,0.0,52,0.00,,,0.00,0,WeatherHawk,2013-05-08 08:27:00,
2013-05-08 01:28:00,60.8,43.1,29.97,NNW,348,5.0,0.0,52,0.00,,,0.00,0,WeatherHawk,2013-05-08 08:28:00,
2013-05-08 01:31:00,60.6,42.9,29.97,North,357,6.0,6.0,52,0.00,,,0.00,0,WeatherHawk,2013-05-08 08:31:00,
2013-05-08 01:33:00,60.6,42.9,29.97,North,357,5.0,5.0,52,0.00,,,0.00,0,WeatherHawk,2013-05-08 08:33:00,
2013-05-08 01:38:00,60.8,43.1,29.97,NNW,348,4.0,5.0,52,0.00,,,0.00,0,WeatherHawk,2013-05-08 08:38:00,
2013-05-08 01:39:00,60.6,42.9,29.96,NNW,337,5.0,0.0,52,0.00,,,0.00,0,WeatherHawk,2013-05-08 08:39:00,
2013-05-08 01:41:00,60.6,42.9,29.96,NNW,333,5.0,0.0,52,0.00,,,0.00,0,WeatherHawk,2013-05-08 08:41:00,
2013-05-08 01:44:00,61.0,42.7,29.96,NW,310,6.0,0.0,51,0.00,,,0.00,0,WeatherHawk,2013-05-08 08:44:00,
2013-05-08 01:49:00,61.0,42.7,29.96,WNW,297,6.0,0.0,51,0.00,,,0.00,0,WeatherHawk,2013-05-08 08:49:00,
2013-05-08 01:50:00,61.0,42.7,29.96,WNW,295,6.0,0.0,51,0.00,,,0.00,0,WeatherHawk,2013-05-08 08:50:00,
2013-05-08 01:51:00,60.8,43.1,29.96,WNW,296,6.0,7.0,52,0.00,,,0.00,0,WeatherHawk,2013-05-08 08:51:00,
2013-05-08 01:52:00,60.8,43.1,29.96,WNW,294,5.0,7.0,52,0.00,,,0.00,0,WeatherHawk,2013-05-08 08:52:00,
2013-05-08 01:56:00,60.3,43.1,29.96,NW,311,4.0,7.0,53,0.00,,,0.00,0,WeatherHawk,2013-05-08 08:56:00,
2013-05-08 01:58:00,60.3,43.5,29.96,NW,307,4.0,7.0,54,0.00,,,0.00,0,WeatherHawk,2013-05-08 08:58:00,
2013-05-08 01:59:00,59.9,43.2,29.96,NNW,327,4.0,6.0,54,0.00,,,0.00,0,WeatherHawk,2013-05-08 08:59:00,
2013-05-08 02:03:00,59.7,43.0,29.95,NW,320,5.0,6.0,54,0.00,,,0.00,0,WeatherHawk,2013-05-08 09:03:00,
2013-05-08 02:08:00,59.7,43.0,29.95,WNW,303,6.0,6.0,54,0.00,,,0.00,0,WeatherHawk,2013-05-08 09:08:00,
2013-05-08 02:10:00,59.7,43.0,29.95,WNW,295,4.0,0.0,54,0.00,,,0.00,0,WeatherHawk,2013-05-08 09:10:00,
2013-05-08 02:13:00,59.7,43.0,29.95,WNW,292,4.0,0.0,54,0.00,,,0.00,0,WeatherHawk,2013-05-08 09:13:00,
2013-05-08 02:18:00,59.4,42.7,29.96,NW,322,4.0,0.0,54,0.00,,,0.00,0,WeatherHawk,2013-05-08 09:18:00,
2013-05-08 02:21:00,59.4,42.2,29.96,NW,320,4.0,0.0,53,0.00,,,0.00,0,WeatherHawk,2013-05-08 09:21:00,
2013-05-08 02:22:00,59.5,42.4,29.96,NW,308,6.0,0.0,53,0.00,,,0.00,0,WeatherHawk,2013-05-08 09:22:00,
2013-05-08 02:24:00,59.7,42.6,29.96,NW,311,6.0,0.0,53,0.00,,,0.00,0,WeatherHawk,2013-05-08 09:24:00,
2013-05-08 02:26:00,59.7,42.6,29.96,NW,315,6.0,0.0,53,0.00,,,0.00,0,WeatherHawk,2013-05-08 09:26:00,
2013-05-08 02:27:00,59.7,42.6,29.96,NW,312,5.0,0.0,53,0.00,,,0.00,0,WeatherHawk,2013-05-08 09:27:00,
2013-05-08 02:29:00,59.5,42.9,29.96,NW,310,5.0,0.0,54,0.00,,,0.00,1,WeatherHawk,2013-05-08 09:29:00,
2013-05-08 02:31:00,59.4,42.7,29.96,NW,309,5.0,0.0,54,0.00,,,0.00,0,WeatherHawk,2013-05-08 09:31:00,
2013-05-08 02:33:00,59.4,42.7,29.96,NW,313,4.0,0.0,54,0.00,,,0.00,0,WeatherHawk,2013-05-08 09:33:00,
2013-05-08 02:34:00,59.4,42.7,29.96,WNW,302,5.0,0.0,54,0.00,,,0.00,0,WeatherHawk,2013-05-08 09:34:00,
2013-05-08 02:38:00,59.0,43.3,29.95,WNW,284,4.0,0.0,56,0.00,,,0.00,0,WeatherHawk,2013-05-08 09:38:00,
2013-05-08 02:40:00,58.6,43.5,29.96,West,274,3.0,0.0,57,0.00,,,0.00,0,WeatherHawk,2013-05-08 09:40:00,
2013-05-08 02:41:00,58.6,43.5,29.96,West,279,2.0,0.0,57,0.00,,,0.00,0,WeatherHawk,2013-05-08 09:41:00,
2013-05-08 02:43:00,58.5,43.7,29.96,West,280,3.0,0.0,58,0.00,,,0.00,0,WeatherHawk,2013-05-08 09:43:00,
2013-05-08 02:47:00,57.9,44.1,29.96,NW,312,3.0,0.0,60,0.00,,,0.00,0,WeatherHawk,2013-05-08 09:47:00,
2013-05-08 02:48:00,57.9,44.1,29.96,NW,314,3.0,0.0,60,0.00,,,0.00,1,WeatherHawk,2013-05-08 09:48:00,
2013-05-08 02:52:00,57.7,43.9,29.96,NNW,331,2.0,0.0,60,0.00,,,0.00,0,WeatherHawk,2013-05-08 09:52:00,
2013-05-08 02:56:00,57.6,43.8,29.96,NNE,18,1.0,0.0,60,0.00,,,0.00,0,WeatherHawk,2013-05-08 09:56:00,
2013-05-08 02:57:00,57.6,43.8,29.96,NNE,18,1.0,0.0,60,0.00,,,0.00,0,WeatherHawk,2013-05-08 09:57:00,
2013-05-08 02:59:00,57.7,43.5,29.96,North,6,1.0,3.0,59,0.00,,,0.00,0,WeatherHawk,2013-05-08 09:59:00,
2013-05-08 03:02:00,57.7,43.5,29.96,NE,43,1.0,3.0,59,0.00,,,0.00,0,WeatherHawk,2013-05-08 10:02:00,
2013-05-08 03:03:00,57.7,43.5,29.96,NNE,32,1.0,3.0,59,0.00,,,0.00,0,WeatherHawk,2013-05-08 10:03:00,
2013-05-08 03:05:00,57.7,43.1,29.96,NE,42,2.0,3.0,58,0.00,,,0.00,0,WeatherHawk,2013-05-08 10:05:00,
2013-05-08 03:07:00,57.9,43.2,29.96,NNE,30,2.0,3.0,58,0.00,,,0.00,0,WeatherHawk,2013-05-08 10:07:00,
2013-05-08 03:08:00,57.9,42.8,29.96,NNE,21,3.0,0.0,57,0.00,,,0.00,1,WeatherHawk,2013-05-08 10:08:00,
2013-05-08 03:09:00,57.9,42.8,29.96,NNE,24,3.0,0.0,57,0.00,,,0.00,0,WeatherHawk,2013-05-08 10:09:00,
2013-05-08 03:11:00,57.9,42.3,29.96,North,11,3.0,0.0,56,0.00,,,0.00,0,WeatherHawk,2013-05-08 10:11:00,
2013-05-08 03:12:00,57.9,42.3,29.96,North,11,3.0,0.0,56,0.00,,,0.00,0,WeatherHawk,2013-05-08 10:12:00,
2013-05-08 03:14:00,58.5,42.4,29.96,North,2,4.0,0.0,55,0.00,,,0.00,0,WeatherHawk,2013-05-08 10:14:00,
2013-05-08 03:17:00,58.8,42.2,29.96,North,3,4.0,0.0,54,0.00,,,0.00,0,WeatherHawk,2013-05-08 10:17:00,
2013-05-08 03:20:00,58.8,42.2,29.96,NNE,13,2.0,0.0,54,0.00,,,0.00,0,WeatherHawk,2013-05-08 10:20:00,
2013-05-08 03:22:00,58.8,41.7,29.96,North,354,4.0,0.0,53,0.00,,,0.00,0,WeatherHawk,2013-05-08 10:22:00,
2013-05-08 03:25:00,59.2,41.6,29.96,NNW,340,6.0,0.0,52,0.00,,,0.00,0,WeatherHawk,2013-05-08 10:25:00,
2013-05-08 03:26:00,59.2,41.6,29.96,NNW,341,5.0,0.0,52,0.00,,,0.00,1,WeatherHawk,2013-05-08 10:26:00,
2013-05-08 03:27:00,59.4,41.7,29.96,NNW,342,4.0,0.0,52,0.00,,,0.00,0,WeatherHawk,2013-05-08 10:27:00,
2013-05-08 03:32:00,59.5,41.9,29.96,NNW,341,4.0,6.0,52,0.00,,,0.00,0,WeatherHawk,2013-05-08 10:32:00,
2013-05-08 03:34:00,59.5,41.9,29.96,North,357,4.0,6.0,52,0.00,,,0.00,0,WeatherHawk,2013-05-08 10:34:00,
2013-05-08 03:37:00,59.4,41.7,29.96,North,0,3.0,6.0,52,0.00,,,0.00,0,WeatherHawk,2013-05-08 10:37:00,
2013-05-08 03:40:00,59.4,41.7,29.96,North,352,6.0,6.0,52,0.00,,,0.00,0,WeatherHawk,2013-05-08 10:40:00,
2013-05-08 03:42:00,59.4,42.2,29.96,North,356,5.0,5.0,53,0.00,,,0.00,0,WeatherHawk,2013-05-08 10:42:00,
2013-05-08 03:45:00,59.0,41.9,29.96,NNE,16,3.0,5.0,53,0.00,,,0.00,0,WeatherHawk,2013-05-08 10:45:00,
2013-05-08 03:47:00,59.0,41.9,29.96,NNE,16,3.0,5.0,53,0.00,,,0.00,0,WeatherHawk,2013-05-08 10:47:00,
2013-05-08 03:51:00,58.8,42.2,29.96,North,3,3.0,0.0,54,0.00,,,0.00,0,WeatherHawk,2013-05-08 10:51:00,
2013-05-08 03:52:00,58.8,42.2,29.96,North,3,3.0,-999.0,54,0.00,,,0.00,0,WeatherHawk,2013-05-08 10:52:00,
2013-05-08 03:53:00,58.8,41.7,29.96,North,10,2.0,0.0,53,0.00,,,0.00,0,WeatherHawk,2013-05-08 10:53:00,
2013-05-08 03:54:00,58.8,41.7,29.96,North,357,2.0,0.0,53,0.00,,,0.00,0,WeatherHawk,2013-05-08 10:54:00,
2013-05-08 03:56:00,58.8,41.7,29.96,NNW,341,2.0,0.0,53,0.00,,,0.00,0,WeatherHawk,2013-05-08 10:56:00,
2013-05-08 03:57:00,58.8,41.7,29.96,NNW,334,2.0,0.0,53,0.00,,,0.00,0,WeatherHawk,2013-05-08 10:57:00,
2013-05-08 04:02:00,59.0,41.9,29.96,NNW,345,4.0,0.0,53,0.00,,,0.00,0,WeatherHawk,2013-05-08 11:02:00,
2013-05-08 04:07:00,59.0,41.9,29.96,North,355,4.0,0.0,53,0.00,,,0.00,0,WeatherHawk,2013-05-08 11:07:00,
2013-05-08 04:10:00,59.0,41.9,29.97,North,358,5.0,0.0,53,0.00,,,0.00,0,WeatherHawk,2013-05-08 11:10:00,
2013-05-08 04:11:00,59.0,41.9,29.97,North,356,5.0,0.0,53,0.00,,,0.00,0,WeatherHawk,2013-05-08 11:11:00,
2013-05-08 04:12:00,59.2,42.1,29.97,North,355,4.0,0.0,53,0.00,,,0.00,1,WeatherHawk,2013-05-08 11:12:00,
2013-05-08 04:15:00,59.2,42.1,29.96,North,357,4.0,0.0,53,0.00,,,0.00,1,WeatherHawk,2013-05-08 11:15:00,
2013-05-08 04:17:00,59.2,42.1,29.96,NNW,344,4.0,0.0,53,0.00,,,0.00,1,WeatherHawk,2013-05-08 11:17:00,
2013-05-08 04:22:00,59.0,41.9,29.96,NNW,333,4.0,5.0,53,0.00,,,0.00,0,WeatherHawk,2013-05-08 11:22:00,
2013-05-08 04:27:00,59.0,41.9,29.96,NNW,329,3.0,5.0,53,0.00,,,0.00,0,WeatherHawk,2013-05-08 11:27:00,
2013-05-08 04:29:00,59.0,41.9,29.96,NNW,327,3.0,0.0,53,0.00,,,0.00,0,WeatherHawk,2013-05-08 11:29:00,
2013-05-08 04:30:00,58.8,41.7,29.96,NNW,336,3.0,0.0,53,0.00,,,0.00,0,WeatherHawk,2013-05-08 11:30:00,
2013-05-08 04:32:00,58.8,42.2,29.96,NNW,333,3.0,-999.0,54,0.00,,,0.00,1,WeatherHawk,2013-05-08 11:32:00,
2013-05-08 04:33:00,58.6,42.0,29.96,NW,318,3.0,0.0,54,0.00,,,0.00,0,WeatherHawk,2013-05-08 11:33:00,
2013-05-08 04:37:00,58.6,42.0,29.97,NW,318,4.0,0.0,54,0.00,,,0.00,0,WeatherHawk,2013-05-08 11:37:00,
2013-05-08 04:39:00,58.6,42.0,29.97,NW,312,4.0,0.0,54,0.00,,,0.00,0,WeatherHawk,2013-05-08 11:39:00,
2013-05-08 04:42:00,58.5,42.4,29.97,NW,323,4.0,0.0,55,0.00,,,0.00,0,WeatherHawk,2013-05-08 11:42:00,
2013-05-08 04:45:00,58.3,42.2,29.97,NNW,340,3.0,0.0,55,0.00,,,0.00,0,WeatherHawk,2013-05-08 11:45:00,
2013-05-08 04:47:00,58.3,42.2,29.97,NNW,339,4.0,0.0,55,0.00,,,0.00,1,WeatherHawk,2013-05-08 11:47:00,
2013-05-08 04:48:00,58.3,42.2,29.97,North,352,4.0,0.0,55,0.00,,,0.00,0,WeatherHawk,2013-05-08 11:48:00,
2013-05-08 04:51:00,58.1,42.0,29.97,North,354,4.0,0.0,55,0.00,,,0.00,0,WeatherHawk,2013-05-08 11:51:00,
2013-05-08 04:52:00,58.1,42.0,29.97,North,354,4.0,0.0,55,0.00,,,0.00,0,WeatherHawk,2013-05-08 11:52:00,
2013-05-08 04:54:00,58.1,42.5,29.97,North,349,4.0,0.0,56,0.00,,,0.00,0,WeatherHawk,2013-05-08 11:54:00,
2013-05-08 04:57:00,58.1,42.5,29.97,NNW,346,4.0,0.0,56,0.00,,,0.00,0,WeatherHawk,2013-05-08 11:57:00,
2013-05-08 05:00:00,58.1,42.5,29.97,NNW,347,3.0,0.0,56,0.00,,,0.00,0,WeatherHawk,2013-05-08 12:00:00,
2013-05-08 05:02:00,58.1,42.5,29.97,NNW,347,3.0,0.0,56,0.00,,,0.00,0,WeatherHawk,2013-05-08 12:02:00,
2013-05-08 05:04:00,57.9,42.3,29.97,NNW,338,4.0,0.0,56,0.00,,,0.00,0,WeatherHawk,2013-05-08 12:04:00,
2013-05-08 05:05:00,57.9,42.8,29.98,NNW,328,4.0,0.0,57,0.00,,,0.00,0,WeatherHawk,2013-05-08 12:05:00,
2013-05-08 05:08:00,57.9,42.8,29.98,NW,317,2.0,0.0,57,0.00,,,0.00,0,WeatherHawk,2013-05-08 12:08:00,
2013-05-08 05:12:00,57.7,42.6,29.98,NNW,327,5.0,0.0,57,0.00,,,0.00,0,WeatherHawk,2013-05-08 12:12:00,
2013-05-08 05:16:00,57.7,42.6,29.98,NW,306,3.0,0.0,57,0.00,,,0.00,0,WeatherHawk,2013-05-08 12:16:00,
2013-05-08 05:17:00,57.7,42.6,29.98,NW,306,3.0,0.0,57,0.00,,,0.00,0,WeatherHawk,2013-05-08 12:17:00,
2013-05-08 05:19:00,57.6,42.4,29.98,NW,316,3.0,5.0,57,0.00,,,0.00,0,WeatherHawk,2013-05-08 12:19:00,
2013-05-08 05:22:00,57.6,42.4,29.98,NW,314,3.0,5.0,57,0.00,,,0.00,0,WeatherHawk,2013-05-08 12:22:00,
2013-05-08 05:23:00,57.6,42.9,29.98,NW,312,3.0,5.0,58,0.00,,,0.00,1,WeatherHawk,2013-05-08 12:23:00,
2013-05-08 05:24:00,57.4,42.7,29.98,NW,304,3.0,5.0,58,0.00,,,0.00,0,WeatherHawk,2013-05-08 12:24:00,
2013-05-08 05:26:00,57.4,42.7,29.98,NW,315,4.0,5.0,58,0.00,,,0.00,0,WeatherHawk,2013-05-08 12:26:00,
2013-05-08 05:27:00,57.4,42.7,29.98,NW,319,4.0,-999.0,58,0.00,,,0.00,1,WeatherHawk,2013-05-08 12:27:00,
2013-05-08 05:28:00,57.4,42.7,29.98,NW,314,4.0,0.0,58,0.00,,,0.00,0,WeatherHawk,2013-05-08 12:28:00,
2013-05-08 05:31:00,57.4,42.7,29.98,NW,319,3.0,0.0,58,0.00,,,0.00,0,WeatherHawk,2013-05-08 12:31:00,
2013-05-08 05:32:00,57.4,42.7,29.98,NNW,331,3.0,0.0,58,0.00,,,0.00,0,WeatherHawk,2013-05-08 12:32:00,
2013-05-08 05:35:00,57.4,42.3,29.98,NNW,339,4.0,0.0,57,0.00,,,0.00,3,WeatherHawk,2013-05-08 12:35:00,
2013-05-08 05:36:00,57.4,42.3,29.98,NNW,331,4.0,0.0,57,0.00,,,0.00,3,WeatherHawk,2013-05-08 12:36:00,
2013-05-08 05:37:00,57.4,42.3,29.98,NNW,331,4.0,0.0,57,0.00,,,0.00,3,WeatherHawk,2013-05-08 12:37:00,
2013-05-08 05:39:00,57.4,42.7,29.98,North,350,4.0,0.0,58,0.00,,,0.00,4,WeatherHawk,2013-05-08 12:39:00,
2013-05-08 05:42:00,57.4,42.7,29.98,North,351,3.0,-999.0,58,0.00,,,0.00,3,WeatherHawk,2013-05-08 12:42:00,
2013-05-08 05:45:00,57.4,42.7,29.98,North,358,3.0,0.0,58,0.00,,,0.00,6,WeatherHawk,2013-05-08 12:45:00,
2013-05-08 05:47:00,57.4,42.7,29.98,North,350,4.0,0.0,58,0.00,,,0.00,8,WeatherHawk,2013-05-08 12:47:00,
2013-05-08 05:50:00,57.4,42.7,29.98,NNW,346,3.0,0.0,58,0.00,,,0.00,14,WeatherHawk,2013-05-08 12:50:00,
2013-05-08 05:52:00,57.4,42.3,29.98,NNW,340,3.0,0.0,57,0.00,,,0.00,19,WeatherHawk,2013-05-08 12:52:00,
2013-05-08 05:57:00,57.4,42.3,29.99,NNW,328,4.0,0.0,57,0.00,,,0.00,35,WeatherHawk,2013-05-08 12:57:00,
2013-05-08 05:58:00,57.4,42.3,29.99,NW,326,4.0,0.0,57,0.00,,,0.00,39,WeatherHawk,2013-05-08 12:58:00,
2013-05-08 06:02:00,57.6,42.4,29.99,NNW,330,4.0,0.0,57,0.00,,,0.00,43,WeatherHawk,2013-05-08 13:02:00,
2013-05-08 06:04:00,57.7,42.6,29.99,NNW,329,5.0,0.0,57,0.00,,,0.00,58,WeatherHawk,2013-05-08 13:04:00,
2013-05-08 06:06:00,57.7,42.6,29.99,NNW,334,4.0,0.0,57,0.00,,,0.00,64,WeatherHawk,2013-05-08 13:06:00,
2013-05-08 06:07:00,57.7,42.6,29.99,NNW,337,3.0,0.0,57,0.00,,,0.00,56,WeatherHawk,2013-05-08 13:07:00,
2013-05-08 06:12:00,57.7,42.6,29.99,NNW,339,3.0,0.0,57,0.00,,,0.00,52,WeatherHawk,2013-05-08 13:12:00,
2013-05-08 06:14:00,57.7,42.6,29.99,NNW,332,2.0,0.0,57,0.00,,,0.00,84,WeatherHawk,2013-05-08 13:14:00,
2013-05-08 06:18:00,57.9,42.8,29.99,NW,326,3.0,0.0,57,0.00,,,0.00,83,WeatherHawk,2013-05-08 13:18:00,
2013-05-08 06:19:00,57.9,42.3,29.99,NW,315,4.0,0.0,56,0.00,,,0.00,122,WeatherHawk,2013-05-08 13:19:00,
2013-05-08 06:21:00,57.9,42.3,29.99,NW,318,3.0,0.0,56,0.00,,,0.00,136,WeatherHawk,2013-05-08 13:21:00,
2013-05-08 06:24:00,58.1,42.5,29.99,NW,318,2.0,0.0,56,0.00,,,0.00,153,WeatherHawk,2013-05-08 13:24:00,
2013-05-08 06:27:00,58.3,42.7,30.00,NW,311,2.0,-999.0,56,0.00,,,0.00,158,WeatherHawk,2013-05-08 13:27:00,
2013-05-08 06:29:00,58.5,42.8,30.00,NW,318,2.0,4.0,56,0.00,,,0.00,155,WeatherHawk,2013-05-08 13:29:00,
2013-05-08 06:30:00,58.6,42.5,30.00,NW,319,1.0,4.0,55,0.00,,,0.00,179,WeatherHawk,2013-05-08 13:30:00,
2013-05-08 06:32:00,58.6,42.5,30.00,NW,310,2.0,4.0,55,0.00,,,0.00,188,WeatherHawk,2013-05-08 13:32:00,
2013-05-08 06:37:00,59.0,42.9,30.00,North,357,2.0,-999.0,55,0.00,,,0.00,149,WeatherHawk,2013-05-08 13:37:00,
2013-05-08 06:38:00,58.8,42.7,30.00,North,351,2.0,0.0,55,0.00,,,0.00,146,WeatherHawk,2013-05-08 13:38:00,
2013-05-08 06:39:00,58.8,42.7,30.00,North,357,3.0,0.0,55,0.00,,,0.00,148,WeatherHawk,2013-05-08 13:39:00,
2013-05-08 06:41:00,58.8,42.7,30.00,NNE,14,3.0,0.0,55,0.00,,,0.00,220,WeatherHawk,2013-05-08 13:41:00,
2013-05-08 06:42:00,58.8,42.7,30.00,NNE,14,3.0,0.0,55,0.00,,,0.00,220,WeatherHawk,2013-05-08 13:42:00,
2013-05-08 06:46:00,59.0,42.9,30.00,North,358,5.0,0.0,55,0.00,,,0.00,126,WeatherHawk,2013-05-08 13:46:00,
2013-05-08 06:47:00,59.0,42.9,30.00,North,358,5.0,0.0,55,0.00,,,0.00,126,WeatherHawk,2013-05-08 13:47:00,
2013-05-08 06:49:00,59.0,42.9,30.00,North,357,5.0,0.0,55,0.00,,,0.00,169,WeatherHawk,2013-05-08 13:49:00,
2013-05-08 06:52:00,59.0,42.9,30.00,North,6,5.0,-999.0,55,0.00,,,0.00,185,WeatherHawk,2013-05-08 13:52:00,
2013-05-08 06:57:00,59.0,42.9,30.00,NNW,344,4.0,6.0,55,0.00,,,0.00,109,WeatherHawk,2013-05-08 13:57:00,
2013-05-08 06:58:00,59.0,42.9,30.00,North,356,3.0,0.0,55,0.00,,,0.00,97,WeatherHawk,2013-05-08 13:58:00,
2013-05-08 07:02:00,59.2,43.0,30.00,North,351,3.0,0.0,55,0.00,,,0.00,96,WeatherHawk,2013-05-08 14:02:00,
2013-05-08 07:03:00,59.2,43.0,30.00,North,3,3.0,0.0,55,0.00,,,0.00,99,WeatherHawk,2013-05-08 14:03:00,
2013-05-08 07:04:00,59.2,43.0,30.00,NNE,14,2.0,0.0,55,0.00,,,0.00,101,WeatherHawk,2013-05-08 14:04:00,
2013-05-08 07:07:00,59.4,43.2,30.00,North,10,2.0,0.0,55,0.00,,,0.00,111,WeatherHawk,2013-05-08 14:07:00,
2013-05-08 07:09:00,59.4,42.7,30.01,North,351,2.0,0.0,54,0.00,,,0.00,115,WeatherHawk,2013-05-08 14:09:00,
2013-05-08 07:11:00,59.5,42.9,30.01,North,349,3.0,0.0,54,0.00,,,0.00,118,WeatherHawk,2013-05-08 14:11:00,
2013-05-08 07:12:00,59.5,42.9,30.01,North,349,3.0,-999.0,54,0.00,,,0.00,118,WeatherHawk,2013-05-08 14:12:00,
2013-05-08 07:15:00,59.5,42.9,30.01,NW,305,2.0,0.0,54,0.00,,,0.00,125,WeatherHawk,2013-05-08 14:15:00,
2013-05-08 07:17:00,59.7,43.0,30.01,WNW,288,2.0,0.0,54,0.00,,,0.00,130,WeatherHawk,2013-05-08 14:17:00,
2013-05-08 07:22:00,59.9,42.7,30.01,WNW,286,2.0,0.0,53,0.00,,,0.00,174,WeatherHawk,2013-05-08 14:22:00,
2013-05-08 07:25:00,60.1,42.9,30.02,WNW,283,3.0,0.0,53,0.00,,,0.00,157,WeatherHawk,2013-05-08 14:25:00,
2013-05-08 07:27:00,60.1,42.9,30.02,WNW,283,3.0,0.0,53,0.00,,,0.00,157,WeatherHawk,2013-05-08 14:27:00,
2013-05-08 07:32:00,60.1,42.9,30.02,WNW,286,4.0,0.0,53,0.00,,,0.00,165,WeatherHawk,2013-05-08 14:32:00,
2013-05-08 07:36:00,60.4,43.7,30.02,WNW,296,3.0,4.0,54,0.00,,,0.00,410,WeatherHawk,2013-05-08 14:36:00,
2013-05-08 07:37:00,60.4,44.2,30.02,WNW,292,2.0,4.0,55,0.00,,,0.00,412,WeatherHawk,2013-05-08 14:37:00,
2013-05-08 07:38:00,60.6,43.9,30.02,WNW,292,3.0,0.0,54,0.00,,,0.00,411,WeatherHawk,2013-05-08 14:38:00,
2013-05-08 07:42:00,60.8,44.0,30.02,WNW,300,3.0,0.0,54,0.00,,,0.00,445,WeatherHawk,2013-05-08 14:42:00,
2013-05-08 07:43:00,61.2,43.9,30.02,WNW,300,3.0,0.0,53,0.00,,,0.00,480,WeatherHawk,2013-05-08 14:43:00,
2013-05-08 07:44:00,61.3,44.5,30.02,West,281,3.0,0.0,54,0.00,,,0.00,495,WeatherHawk,2013-05-08 14:44:00,
2013-05-08 07:46:00,61.5,44.7,30.02,West,274,4.0,0.0,54,0.00,,,0.00,546,WeatherHawk,2013-05-08 14:46:00,
2013-05-08 07:47:00,61.5,44.7,30.02,WNW,293,4.0,0.0,54,0.00,,,0.00,577,WeatherHawk,2013-05-08 14:47:00,
2013-05-08 07:49:00,61.9,43.6,30.02,West,277,4.0,0.0,51,0.00,,,0.00,528,WeatherHawk,2013-05-08 14:49:00,
2013-05-08 07:50:00,62.1,44.2,30.02,NW,321,2.0,0.0,52,0.00,,,0.00,478,WeatherHawk,2013-05-08 14:50:00,
2013-05-08 07:51:00,62.2,43.9,30.02,NW,309,3.0,0.0,51,0.00,,,0.00,431,WeatherHawk,2013-05-08 14:51:00,
2013-05-08 07:52:00,62.2,43.4,30.02,NNW,327,5.0,0.0,50,0.00,,,0.00,406,WeatherHawk,2013-05-08 14:52:00,
2013-05-08 07:54:00,62.4,44.0,30.02,NW,320,3.0,0.0,51,0.00,,,0.00,318,WeatherHawk,2013-05-08 14:54:00,
2013-05-08 07:55:00,62.4,44.6,30.01,WNW,300,4.0,0.0,52,0.00,,,0.00,299,WeatherHawk,2013-05-08 14:55:00,
2013-05-08 07:56:00,62.4,43.0,30.01,NW,313,7.0,0.0,49,0.00,,,0.00,305,WeatherHawk,2013-05-08 14:56:00,
2013-05-08 07:57:00,62.4,43.0,30.01,NW,313,7.0,0.0,49,0.00,,,0.00,305,WeatherHawk,2013-05-08 14:57:00,
2013-05-08 08:00:00,62.6,42.6,30.01,WNW,299,6.0,0.0,48,0.00,,,0.00,309,WeatherHawk,2013-05-08 15:00:00,
2013-05-08 08:02:00,62.6,41.5,30.01,NW,312,6.0,-999.0,46,0.00,,,0.00,299,WeatherHawk,2013-05-08 15:02:00,
2013-05-08 08:04:00,63.0,43.0,30.02,WNW,292,4.0,0.0,48,0.00,,,0.00,299,WeatherHawk,2013-05-08 15:04:00,
2013-05-08 08:05:00,63.0,43.5,30.02,WNW,297,5.0,0.0,49,0.00,,,0.00,298,WeatherHawk,2013-05-08 15:05:00,
2013-05-08 08:09:00,62.8,42.2,30.02,NW,311,4.0,0.0,47,0.00,,,0.00,278,WeatherHawk,2013-05-08 15:09:00,
2013-05-08 08:10:00,62.8,42.8,30.02,NW,322,4.0,0.0,48,0.00,,,0.00,274,WeatherHawk,2013-05-08 15:10:00,
2013-05-08 08:11:00,62.8,42.8,30.02,NW,322,4.0,0.0,48,0.00,,,0.00,279,WeatherHawk,2013-05-08 15:11:00,
2013-05-08 08:12:00,62.8,42.8,30.02,WNW,302,4.0,0.0,48,0.00,,,0.00,284,WeatherHawk,2013-05-08 15:12:00,
2013-05-08 08:15:00,63.0,43.5,30.02,WNW,291,5.0,0.0,49,0.00,,,0.00,290,WeatherHawk,2013-05-08 15:15:00,
2013-05-08 08:17:00,63.0,44.5,30.02,WNW,282,4.0,0.0,51,0.00,,,0.00,301,WeatherHawk,2013-05-08 15:17:00,
2013-05-08 08:20:00,63.0,44.5,30.02,West,265,5.0,0.0,51,0.00,,,0.00,296,WeatherHawk,2013-05-08 15:20:00,
2013-05-08 08:22:00,63.0,44.5,30.02,West,265,5.0,0.0,51,0.00,,,0.00,296,WeatherHawk,2013-05-08 15:22:00,
2013-05-08 08:23:00,63.0,44.0,30.02,West,272,6.0,0.0,50,0.00,,,0.00,378,WeatherHawk,2013-05-08 15:23:00,
2013-05-08 08:26:00,63.0,44.5,30.02,West,265,4.0,0.0,51,0.00,,,0.00,374,WeatherHawk,2013-05-08 15:26:00,
2013-05-08 08:27:00,63.0,44.0,30.03,WSW,251,6.0,-999.0,50,0.00,,,0.00,376,WeatherHawk,2013-05-08 15:27:00,
2013-05-08 08:28:00,63.0,44.0,30.03,WSW,256,4.0,0.0,50,0.00,,,0.00,468,WeatherHawk,2013-05-08 15:28:00,
2013-05-08 08:30:00,63.1,44.2,30.03,West,271,5.0,0.0,50,0.00,,,0.00,547,WeatherHawk,2013-05-08 15:30:00,
2013-05-08 08:32:00,63.3,44.4,30.03,WNW,283,4.0,0.0,50,0.00,,,0.00,572,WeatherHawk,2013-05-08 15:32:00,
2013-05-08 08:33:00,63.5,44.0,30.03,West,269,4.0,0.0,49,0.00,,,0.00,574,WeatherHawk,2013-05-08 15:33:00,
2013-05-08 08:34:00,63.5,44.0,30.03,WNW,293,4.0,0.0,49,0.00,,,0.00,573,WeatherHawk,2013-05-08 15:34:00,
2013-05-08 08:36:00,63.7,44.2,30.03,West,260,4.0,0.0,49,0.00,,,0.00,525,WeatherHawk,2013-05-08 15:36:00,
2013-05-08 08:37:00,63.7,44.2,30.03,West,260,4.0,-999.0,49,0.00,,,0.00,525,WeatherHawk,2013-05-08 15:37:00,
2013-05-08 08:39:00,63.9,44.3,30.03,NW,310,5.0,0.0,49,0.00,,,0.00,539,WeatherHawk,2013-05-08 15:39:00,
2013-05-08 08:42:00,63.9,43.8,30.03,WNW,292,3.0,0.0,48,0.00,,,0.00,470,WeatherHawk,2013-05-08 15:42:00,
2013-05-08 08:43:00,64.2,43.6,30.03,West,274,3.0,0.0,47,0.00,,,0.00,631,WeatherHawk,2013-05-08 15:43:00,
2013-05-08 08:44:00,64.4,44.8,30.03,WNW,282,4.0,0.0,49,0.00,,,0.00,617,WeatherHawk,2013-05-08 15:44:00,
2013-05-08 08:46:00,64.4,43.2,30.03,NW,305,2.0,0.0,46,0.00,,,0.00,661,WeatherHawk,2013-05-08 15:46:00,
2013-05-08 08:47:00,64.4,43.2,30.03,NW,305,2.0,0.0,46,0.00,,,0.00,661,WeatherHawk,2013-05-08 15:47:00,
2013-05-08 08:50:00,64.8,42.9,30.02,West,279,5.0,0.0,45,0.00,,,0.00,635,WeatherHawk,2013-05-08 15:50:00,
2013-05-08 08:51:00,64.9,43.1,30.02,WNW,286,5.0,0.0,45,0.00,,,0.00,600,WeatherHawk,2013-05-08 15:51:00,
2013-05-08 08:52:00,64.9,43.1,30.02,WNW,286,5.0,0.0,45,0.00,,,0.00,600,WeatherHawk,2013-05-08 15:52:00,
2013-05-08 08:55:00,64.9,43.1,30.03,WNW,288,4.0,0.0,45,0.00,,,0.00,611,WeatherHawk,2013-05-08 15:55:00,
2013-05-08 08:57:00,65.1,43.2,30.03,West,281,2.0,0.0,45,0.00,,,0.00,628,WeatherHawk,2013-05-08 15:57:00,
2013-05-08 08:58:00,65.3,42.8,30.03,WNW,287,5.0,0.0,44,0.00,,,0.00,532,WeatherHawk,2013-05-08 15:58:00,
2013-05-08 08:59:00,65.3,42.8,30.03,West,270,5.0,0.0,44,0.00,,,0.00,597,WeatherHawk,2013-05-08 15:59:00,
2013-05-08 09:02:00,65.3,42.8,30.03,West,276,4.0,7.0,44,0.00,,,0.00,589,WeatherHawk,2013-05-08 16:02:00,
2013-05-08 09:03:00,65.3,43.4,30.03,WNW,303,4.0,7.0,45,0.00,,,0.00,650,WeatherHawk,2013-05-08 16:03:00,
2013-05-08 09:07:00,65.7,43.1,30.04,WNW,297,4.0,7.0,44,0.00,,,0.00,768,WeatherHawk,2013-05-08 16:07:00,
2013-05-08 09:08:00,65.8,43.3,30.04,WNW,286,6.0,0.0,44,0.00,,,0.00,770,WeatherHawk,2013-05-08 16:08:00,
2013-05-08 09:10:00,66.0,42.9,30.04,West,266,7.0,0.0,43,0.00,,,0.00,788,WeatherHawk,2013-05-08 16:10:00,
2013-05-08 09:12:00,66.2,43.6,30.04,WNW,286,8.0,0.0,44,0.00,,,0.00,704,WeatherHawk,2013-05-08 16:12:00,
2013-05-08 09:14:00,66.2,43.0,30.04,WNW,296,7.0,0.0,43,0.00,,,0.00,556,WeatherHawk,2013-05-08 16:14:00,
2013-05-08 09:15:00,66.2,43.0,30.04,WSW,256,6.0,0.0,43,0.00,,,0.00,529,WeatherHawk,2013-05-08 16:15:00,
2013-05-08 09:17:00,66.2,43.6,30.04,WNW,289,6.0,0.0,44,0.00,,,0.00,684,WeatherHawk,2013-05-08 16:17:00,
2013-05-08 09:19:00,66.4,43.8,30.04,West,280,4.0,0.0,44,0.00,,,0.00,797,WeatherHawk,2013-05-08 16:19:00,
2013-05-08 09:21:00,66.4,43.2,30.04,NW,320,4.0,0.0,43,0.00,,,0.00,788,WeatherHawk,2013-05-08 16:21:00,
2013-05-08 09:26:00,66.7,44.1,30.04,WNW,301,6.0,0.0,44,0.00,,,0.00,663,WeatherHawk,2013-05-08 16:26:00,
2013-05-08 09:28:00,66.7,44.1,30.04,West,264,6.0,0.0,44,0.00,,,0.00,610,WeatherHawk,2013-05-08 16:28:00,
2013-05-08 09:30:00,66.7,44.1,30.04,West,267,4.0,0.0,44,0.00,,,0.00,633,WeatherHawk,2013-05-08 16:30:00,
2013-05-08 09:31:00,66.7,44.1,30.04,West,267,4.0,0.0,44,0.00,,,0.00,633,WeatherHawk,2013-05-08 16:31:00,
2013-05-08 09:35:00,67.5,44.2,30.04,West,276,5.0,0.0,43,0.00,,,0.00,859,WeatherHawk,2013-05-08 16:35:00,
2013-05-08 09:36:00,67.6,44.3,30.04,West,271,5.0,-999.0,43,0.00,,,0.00,870,WeatherHawk,2013-05-08 16:36:00,
2013-05-08 09:38:00,67.6,44.3,30.04,WNW,287,7.0,0.0,43,0.00,,,0.00,801,WeatherHawk,2013-05-08 16:38:00,
2013-05-08 09:39:00,68.0,42.8,30.04,WNW,290,8.0,0.0,40,0.00,,,0.00,879,WeatherHawk,2013-05-08 16:39:00,
2013-05-08 09:41:00,68.4,43.1,30.04,WNW,299,8.0,0.0,40,0.00,,,0.00,902,WeatherHawk,2013-05-08 16:41:00,
2013-05-08 09:45:00,68.9,42.2,30.04,WSW,255,10.0,0.0,38,0.00,,,0.00,879,WeatherHawk,2013-05-08 16:45:00,
2013-05-08 09:46:00,69.1,42.4,30.04,West,262,8.0,0.0,38,0.00,,,0.00,939,WeatherHawk,2013-05-08 16:46:00,
2013-05-08 09:47:00,69.1,42.4,30.04,West,269,10.0,0.0,38,0.00,,,0.00,913,WeatherHawk,2013-05-08 16:47:00,
2013-05-08 09:50:00,68.7,42.8,30.04,WNW,300,6.0,0.0,39,0.00,,,0.00,833,WeatherHawk,2013-05-08 16:50:00,
2013-05-08 09:51:00,68.7,42.8,30.04,WNW,300,6.0,0.0,39,0.00,,,0.00,833,WeatherHawk,2013-05-08 16:51:00,
2013-05-08 09:53:00,69.1,42.4,30.04,West,277,11.0,0.0,38,0.00,,,0.00,815,WeatherHawk,2013-05-08 16:53:00,
2013-05-08 09:56:00,69.1,42.4,30.04,NW,306,8.0,0.0,38,0.00,,,0.00,909,WeatherHawk,2013-05-08 16:56:00,
2013-05-08 09:58:00,69.1,41.7,30.04,NW,307,5.0,0.0,37,0.00,,,0.00,766,WeatherHawk,2013-05-08 16:58:00,
2013-05-08 10:01:00,69.3,42.6,30.04,WSW,255,7.0,0.0,38,0.00,,,0.00,887,WeatherHawk,2013-05-08 17:01:00,
2013-05-08 10:04:00,69.4,42.0,30.04,West,263,9.0,0.0,37,0.00,,,0.00,810,WeatherHawk,2013-05-08 17:04:00,
2013-05-08 10:06:00,69.6,42.2,30.04,West,259,8.0,0.0,37,0.00,,,0.00,992,WeatherHawk,2013-05-08 17:06:00,
2013-05-08 10:11:00,69.6,42.2,30.04,West,275,10.0,-999.0,37,0.00,,,0.00,867,WeatherHawk,2013-05-08 17:11:00,
2013-05-08 10:12:00,69.6,42.2,30.04,West,275,10.0,0.0,37,0.00,,,0.00,867,WeatherHawk,2013-05-08 17:12:00,
2013-05-08 10:16:00,70.0,42.5,30.04,WNW,290,8.0,0.0,37,0.00,,,0.00,950,WeatherHawk,2013-05-08 17:16:00,
2013-05-08 10:17:00,70.0,42.5,30.04,NW,310,8.0,11.0,37,0.00,,,0.00,837,WeatherHawk,2013-05-08 17:17:00,
2013-05-08 10:20:00,70.0,42.5,30.04,NNW,329,7.0,0.0,37,0.00,,,0.00,1002,WeatherHawk,2013-05-08 17:20:00,
2013-05-08 10:22:00,70.2,42.7,30.03,NW,315,7.0,0.0,37,0.00,,,0.00,898,WeatherHawk,2013-05-08 17:22:00,
2013-05-08 10:24:00,70.2,42.7,30.03,WNW,297,5.0,0.0,37,0.00,,,0.00,959,WeatherHawk,2013-05-08 17:24:00,
2013-05-08 10:26:00,70.3,42.8,30.03,NW,318,9.0,0.0,37,0.00,,,0.00,926,WeatherHawk,2013-05-08 17:26:00,
2013-05-08 10:27:00,70.2,41.9,30.03,WNW,301,7.0,-999.0,36,0.00,,,0.00,1018,WeatherHawk,2013-05-08 17:27:00,
2013-05-08 10:28:00,70.2,42.7,30.03,WNW,289,6.0,0.0,37,0.00,,,0.00,1079,WeatherHawk,2013-05-08 17:28:00,
2013-05-08 10:31:00,70.7,42.4,30.03,NW,317,7.0,0.0,36,0.00,,,0.00,705,WeatherHawk,2013-05-08 17:31:00,
2013-05-08 10:32:00,70.7,42.4,30.03,NW,317,7.0,-999.0,36,0.00,,,0.00,705,WeatherHawk,2013-05-08 17:32:00,
2013-05-08 10:34:00,70.5,43.0,30.03,West,275,6.0,0.0,37,0.00,,,0.00,591,WeatherHawk,2013-05-08 17:34:00,
2013-05-08 10:37:00,70.7,42.4,30.03,WNW,299,7.0,0.0,36,0.00,,,0.00,773,WeatherHawk,2013-05-08 17:37:00,
2013-05-08 10:41:00,70.7,42.4,30.03,WNW,295,7.0,12.0,36,0.00,,,0.00,965,WeatherHawk,2013-05-08 17:41:00,
2013-05-08 10:42:00,70.7,42.4,30.03,WNW,289,3.0,12.0,36,0.00,,,0.00,1009,WeatherHawk,2013-05-08 17:42:00,
2013-05-08 10:45:00,70.9,42.6,30.03,WNW,289,4.0,12.0,36,0.00,,,0.00,978,WeatherHawk,2013-05-08 17:45:00,
2013-05-08 10:47:00,71.2,42.9,30.03,NW,317,3.0,12.0,36,0.00,,,0.00,1033,WeatherHawk,2013-05-08 17:47:00,
2013-05-08 10:52:00,71.2,43.6,30.03,NNW,337,4.0,10.0,37,0.00,,,0.00,851,WeatherHawk,2013-05-08 17:52:00,
2013-05-08 10:54:00,71.2,42.9,30.03,NNW,329,4.0,10.0,36,0.00,,,0.00,835,WeatherHawk,2013-05-08 17:54:00,
2013-05-08 10:56:00,72.0,42.8,30.02,WNW,300,6.0,10.0,35,0.00,,,0.00,953,WeatherHawk,2013-05-08 17:56:00,
2013-05-08 10:57:00,72.0,42.8,30.02,WNW,300,6.0,10.0,35,0.00,,,0.00,953,WeatherHawk,2013-05-08 17:57:00,
2013-05-08 11:01:00,72.7,42.7,30.02,SW,230,5.0,0.0,34,0.00,,,0.00,1009,WeatherHawk,2013-05-08 18:01:00,
2013-05-08 11:02:00,72.7,42.7,30.02,SW,230,5.0,0.0,34,0.00,,,0.00,1009,WeatherHawk,2013-05-08 18:02:00,
2013-05-08 11:05:00,72.7,43.4,30.02,NW,306,6.0,0.0,35,0.00,,,0.00,1101,WeatherHawk,2013-05-08 18:05:00,
2013-05-08 11:08:00,73.0,43.0,30.02,West,262,5.0,0.0,34,0.00,,,0.00,816,WeatherHawk,2013-05-08 18:08:00,
2013-05-08 11:11:00,73.2,42.4,30.02,NNW,337,6.0,11.0,33,0.00,,,0.00,1112,WeatherHawk,2013-05-08 18:11:00,
2013-05-08 11:12:00,73.2,42.4,30.02,NNW,337,6.0,11.0,33,0.00,,,0.00,1112,WeatherHawk,2013-05-08 18:12:00,
2013-05-08 11:13:00,73.4,43.3,30.02,NNW,331,9.0,11.0,34,0.00,,,0.00,886,WeatherHawk,2013-05-08 18:13:00,
2013-05-08 11:14:00,73.2,43.2,30.02,WNW,282,6.0,11.0,34,0.00,,,0.00,1091,WeatherHawk,2013-05-08 18:14:00,
2013-05-08 11:15:00,73.0,43.0,30.02,WNW,293,6.0,11.0,34,0.00,,,0.00,1097,WeatherHawk,2013-05-08 18:15:00,
2013-05-08 11:16:00,73.0,43.0,30.02,NW,306,1.0,11.0,34,0.00,,,0.00,843,WeatherHawk,2013-05-08 18:16:00,
2013-05-08 11:18:00,73.4,43.3,30.02,NNW,341,3.0,0.0,34,0.00,,,0.00,1089,WeatherHawk,2013-05-08 18:18:00,
2013-05-08 11:22:00,73.4,41.7,30.02,WNW,285,7.0,0.0,32,0.00,,,0.00,870,WeatherHawk,2013-05-08 18:22:00,
2013-05-08 11:26:00,73.4,42.5,30.02,WSW,254,5.0,0.0,33,0.00,,,0.00,1053,WeatherHawk,2013-05-08 18:26:00,
2013-05-08 11:27:00,73.4,42.5,30.02,WSW,254,5.0,0.0,33,0.00,,,0.00,1053,WeatherHawk,2013-05-08 18:27:00,
2013-05-08 11:28:00,73.6,41.9,30.02,WSW,247,5.0,0.0,32,0.00,,,0.00,801,WeatherHawk,2013-05-08 18:28:00,
2013-05-08 11:29:00,73.8,42.8,30.02,WSW,248,6.0,0.0,33,0.00,,,0.00,854,WeatherHawk,2013-05-08 18:29:00,
2013-05-08 11:32:00,73.9,44.5,30.02,WNW,288,8.0,0.0,35,0.00,,,0.00,1035,WeatherHawk,2013-05-08 18:32:00,
2013-05-08 11:34:00,74.3,44.1,30.02,West,266,9.0,0.0,34,0.00,,,0.00,609,WeatherHawk,2013-05-08 18:34:00,
2013-05-08 11:36:00,74.3,42.5,30.02,West,279,9.0,0.0,32,0.00,,,0.00,848,WeatherHawk,2013-05-08 18:36:00,
2013-05-08 11:37:00,74.1,42.4,30.02,West,270,9.0,0.0,32,0.00,,,0.00,726,WeatherHawk,2013-05-08 18:37:00,
2013-05-08 11:41:00,73.9,43.0,30.02,WNW,294,8.0,0.0,33,0.00,,,0.00,564,WeatherHawk,2013-05-08 18:41:00,
2013-05-08 11:42:00,73.9,43.0,30.02,WNW,294,8.0,-999.0,33,0.00,,,0.00,564,WeatherHawk,2013-05-08 18:42:00,
2013-05-08 11:45:00,73.9,42.2,30.01,WSW,250,6.0,0.0,32,0.00,,,0.00,1103,WeatherHawk,2013-05-08 18:45:00,
2013-05-08 11:47:00,74.1,42.4,30.01,WSW,258,5.0,0.0,32,0.00,,,0.00,1089,WeatherHawk,2013-05-08 18:47:00,
2013-05-08 11:48:00,74.1,43.2,30.01,West,261,5.0,0.0,33,0.00,,,0.00,1141,WeatherHawk,2013-05-08 18:48:00,
2013-05-08 11:52:00,74.5,42.7,30.01,WNW,294,9.0,0.0,32,0.00,,,0.00,1096,WeatherHawk,2013-05-08 18:52:00,
2013-05-08 11:57:00,74.5,41.8,30.01,West,276,9.0,9.0,31,0.00,,,0.00,1088,WeatherHawk,2013-05-08 18:57:00,
2013-05-08 11:59:00,74.5,41.8,30.01,NW,312,10.0,0.0,31,0.00,,,0.00,1086,WeatherHawk,2013-05-08 18:59:00,
2013-05-08 12:00:00,74.3,41.7,30.01,NW,316,7.0,11.0,31,0.00,,,0.00,1085,WeatherHawk,2013-05-08 19:00:00,
2013-05-08 12:02:00,74.3,41.7,30.01,WNW,301,2.0,-999.0,31,0.00,,,0.00,1064,WeatherHawk,2013-05-08 19:02:00,
2013-05-08 12:04:00,74.5,41.8,30.01,West,278,5.0,11.0,31,0.00,,,0.00,1064,WeatherHawk,2013-05-08 19:04:00,
2013-05-08 12:09:00,74.8,42.2,30.01,WNW,289,2.0,0.0,31,0.00,,,0.00,1080,WeatherHawk,2013-05-08 19:09:00,
2013-05-08 12:11:00,75.6,41.9,30.01,West,267,5.0,9.0,30,0.00,,,0.00,1082,WeatherHawk,2013-05-08 19:11:00,
2013-05-08 12:13:00,75.6,41.9,30.01,NW,308,5.0,9.0,30,0.00,,,0.00,1088,WeatherHawk,2013-05-08 19:13:00,
2013-05-08 12:16:00,75.6,41.1,30.00,WSW,244,9.0,9.0,29,0.00,,,0.00,1091,WeatherHawk,2013-05-08 19:16:00,
2013-05-08 12:17:00,75.6,41.1,30.00,WSW,244,9.0,-999.0,29,0.00,,,0.00,1091,WeatherHawk,2013-05-08 19:17:00,
2013-05-08 12:19:00,75.6,41.1,30.00,WSW,243,6.0,0.0,29,0.00,,,0.00,1092,WeatherHawk,2013-05-08 19:19:00,
2013-05-08 12:21:00,75.6,41.9,30.00,WSW,247,4.0,0.0,30,0.00,,,0.00,1089,WeatherHawk,2013-05-08 19:21:00,
2013-05-08 12:22:00,75.6,41.9,30.00,WSW,247,4.0,0.0,30,0.00,,,0.00,1089,WeatherHawk,2013-05-08 19:22:00,
2013-05-08 12:27:00,75.6,40.1,30.00,SW,226,6.0,0.0,28,0.00,,,0.00,1092,WeatherHawk,2013-05-08 19:27:00,
2013-05-08 12:29:00,75.2,39.8,30.00,SSW,208,5.0,0.0,28,0.00,,,0.00,1090,WeatherHawk,2013-05-08 19:29:00,
2013-05-08 12:32:00,75.9,39.5,30.00,SE,146,6.0,0.0,27,0.00,,,0.00,1083,WeatherHawk,2013-05-08 19:32:00,
2013-05-08 12:35:00,75.6,40.1,30.00,WNW,303,2.0,0.0,28,0.00,,,0.00,1081,WeatherHawk,2013-05-08 19:35:00,
2013-05-08 12:37:00,75.6,40.1,30.00,WNW,303,2.0,0.0,28,0.00,,,0.00,1081,WeatherHawk,2013-05-08 19:37:00,
2013-05-08 12:38:00,75.9,42.2,30.00,WSW,258,2.0,0.0,30,0.00,,,0.00,1092,WeatherHawk,2013-05-08 19:38:00,
2013-05-08 12:40:00,76.1,40.6,30.00,WNW,288,13.0,0.0,28,0.00,,,0.00,1098,WeatherHawk,2013-05-08 19:40:00,
2013-05-08 12:42:00,75.9,41.4,30.00,NW,304,2.0,0.0,29,0.00,,,0.00,1098,WeatherHawk,2013-05-08 19:42:00,
2013-05-08 12:45:00,75.4,40.0,30.00,ENE,65,4.0,0.0,28,0.00,,,0.00,1094,WeatherHawk,2013-05-08 19:45:00,
2013-05-08 12:46:00,75.2,40.7,30.00,NE,54,5.0,0.0,29,0.00,,,0.00,1094,WeatherHawk,2013-05-08 19:46:00,
2013-05-08 12:47:00,75.0,40.6,30.00,ENE,77,5.0,0.0,29,0.00,,,0.00,1089,WeatherHawk,2013-05-08 19:47:00,
2013-05-08 12:51:00,75.2,40.7,30.00,North,358,2.0,0.0,29,0.00,,,0.00,935,WeatherHawk,2013-05-08 19:51:00,
2013-05-08 12:52:00,75.4,40.9,29.99,NW,312,2.0,0.0,29,0.00,,,0.00,1026,WeatherHawk,2013-05-08 19:52:00,
2013-05-08 12:53:00,75.7,41.2,29.99,NNE,18,2.0,0.0,29,0.00,,,0.00,1078,WeatherHawk,2013-05-08 19:53:00,
2013-05-08 12:56:00,76.5,40.9,29.99,WSW,249,8.0,0.0,28,0.00,,,0.00,1084,WeatherHawk,2013-05-08 19:56:00,
2013-05-08 12:57:00,76.5,40.9,29.99,WSW,249,8.0,0.0,28,0.00,,,0.00,1084,WeatherHawk,2013-05-08 19:57:00,
2013-05-08 12:58:00,76.6,41.1,29.99,SW,225,5.0,0.0,28,0.00,,,0.00,1088,WeatherHawk,2013-05-08 19:58:00,
2013-05-08 12:59:00,76.8,41.2,29.99,WNW,291,6.0,0.0,28,0.00,,,0.00,1090,WeatherHawk,2013-05-08 19:59:00,
2013-05-08 13:02:00,77.0,40.4,29.99,NW,323,3.0,0.0,27,0.00,,,0.00,1094,WeatherHawk,2013-05-08 20:02:00,
2013-05-08 13:04:00,77.4,40.7,29.99,NNW,327,11.0,0.0,27,0.00,,,0.00,1088,WeatherHawk,2013-05-08 20:04:00,
2013-05-08 13:06:00,76.8,40.3,29.99,NE,44,3.0,0.0,27,0.00,,,0.00,1092,WeatherHawk,2013-05-08 20:06:00,
2013-05-08 13:07:00,76.8,41.2,29.99,NE,40,6.0,0.0,28,0.00,,,0.00,1090,WeatherHawk,2013-05-08 20:07:00,
2013-05-08 13:08:00,76.6,40.1,29.99,WNW,292,8.0,0.0,27,0.00,,,0.00,1089,WeatherHawk,2013-05-08 20:08:00,
2013-05-08 13:09:00,76.6,40.1,29.99,WNW,297,7.0,0.0,27,0.00,,,0.00,1092,WeatherHawk,2013-05-08 20:09:00,
2013-05-08 13:12:00,76.6,40.1,29.99,WNW,284,3.0,0.0,27,0.00,,,0.00,1094,WeatherHawk,2013-05-08 20:12:00,
2013-05-08 13:13:00,76.8,40.3,29.99,West,270,6.0,0.0,27,0.00,,,0.00,1091,WeatherHawk,2013-05-08 20:13:00,
2013-05-08 13:15:00,76.8,40.3,29.99,SW,236,4.0,0.0,27,0.00,,,0.00,1088,WeatherHawk,2013-05-08 20:15:00,
2013-05-08 13:17:00,77.4,40.7,29.99,West,265,10.0,0.0,27,0.00,,,0.00,1088,WeatherHawk,2013-05-08 20:17:00,
2013-05-08 13:19:00,77.2,39.6,29.99,WNW,296,9.0,0.0,26,0.00,,,0.00,1089,WeatherHawk,2013-05-08 20:19:00,
2013-05-08 13:20:00,77.0,39.5,29.99,NW,306,5.0,0.0,26,0.00,,,0.00,1088,WeatherHawk,2013-05-08 20:20:00,
2013-05-08 13:25:00,77.5,38.9,29.99,WNW,302,4.0,0.0,25,0.00,,,0.00,1107,WeatherHawk,2013-05-08 20:25:00,
2013-05-08 13:26:00,77.9,39.2,29.99,WNW,302,2.0,0.0,25,0.00,,,0.00,1106,WeatherHawk,2013-05-08 20:26:00,
2013-05-08 13:27:00,78.3,39.5,29.99,West,272,3.0,0.0,25,0.00,,,0.00,1092,WeatherHawk,2013-05-08 20:27:00,
2013-05-08 13:28:00,78.1,39.4,29.99,SSW,213,4.0,0.0,25,0.00,,,0.00,1124,WeatherHawk,2013-05-08 20:28:00,
2013-05-08 13:29:00,77.9,39.2,29.99,WSW,257,5.0,0.0,25,0.00,,,0.00,1098,WeatherHawk,2013-05-08 20:29:00,
2013-05-08 13:33:00,77.9,39.2,29.99,NW,320,4.0,0.0,25,0.00,,,0.00,1117,WeatherHawk,2013-05-08 20:33:00,
2013-05-08 13:34:00,77.9,39.2,29.99,North,9,3.0,0.0,25,0.00,,,0.00,1094,WeatherHawk,2013-05-08 20:34:00,
2013-05-08 13:36:00,77.9,40.2,29.99,NW,305,8.0,0.0,26,0.00,,,0.00,1108,WeatherHawk,2013-05-08 20:36:00,
2013-05-08 13:37:00,77.9,39.2,29.99,SSW,213,10.0,-999.0,25,0.00,,,0.00,1083,WeatherHawk,2013-05-08 20:37:00,
2013-05-08 13:39:00,77.7,38.0,29.99,South,187,6.0,0.0,24,0.00,,,0.00,1004,WeatherHawk,2013-05-08 20:39:00,
2013-05-08 13:42:00,77.5,37.9,29.99,SW,231,4.0,0.0,24,0.00,,,0.00,1059,WeatherHawk,2013-05-08 20:42:00,
2013-05-08 13:43:00,77.7,38.0,29.99,SW,233,9.0,0.0,24,0.00,,,0.00,885,WeatherHawk,2013-05-08 20:43:00,
2013-05-08 13:46:00,77.5,36.8,29.99,SW,223,2.0,0.0,23,0.00,,,0.00,980,WeatherHawk,2013-05-08 20:46:00,
2013-05-08 13:47:00,77.5,36.8,29.99,SW,223,2.0,0.0,23,0.00,,,0.00,980,WeatherHawk,2013-05-08 20:47:00,
2013-05-08 13:48:00,78.1,38.3,29.98,SSW,208,13.0,0.0,24,0.00,,,0.00,1057,WeatherHawk,2013-05-08 20:48:00,
2013-05-08 13:50:00,77.9,38.2,29.98,South,190,6.0,0.0,24,0.00,,,0.00,1053,WeatherHawk,2013-05-08 20:50:00,
2013-05-08 13:52:00,77.9,38.2,29.98,SW,217,1.0,0.0,24,0.00,,,0.00,1048,WeatherHawk,2013-05-08 20:52:00,
2013-05-08 13:54:00,78.1,36.1,29.98,SSW,209,7.0,0.0,22,0.00,,,0.00,1045,WeatherHawk,2013-05-08 20:54:00,
2013-05-08 13:57:00,78.1,37.3,29.98,WSW,242,9.0,0.0,23,0.00,,,0.00,1046,WeatherHawk,2013-05-08 20:57:00,
2013-05-08 14:01:00,77.9,36.0,29.98,WSW,243,9.0,0.0,22,0.00,,,0.00,1035,WeatherHawk,2013-05-08 21:01:00,
2013-05-08 14:02:00,77.9,37.1,29.98,SW,228,8.0,-999.0,23,0.00,,,0.00,1036,WeatherHawk,2013-05-08 21:02:00,
2013-05-08 14:04:00,77.9,37.1,29.98,SSE,148,3.0,0.0,23,0.00,,,0.00,1030,WeatherHawk,2013-05-08 21:04:00,
2013-05-08 14:06:00,78.4,36.4,29.98,SSE,148,4.0,0.0,22,0.00,,,0.00,1028,WeatherHawk,2013-05-08 21:06:00,
2013-05-08 14:07:00,78.8,36.7,29.98,SSW,209,7.0,0.0,22,0.00,,,0.00,1024,WeatherHawk,2013-05-08 21:07:00,
2013-05-08 14:08:00,79.0,35.7,29.98,SSW,212,12.0,0.0,21,0.00,,,0.00,1019,WeatherHawk,2013-05-08 21:08:00,
2013-05-08 14:11:00,79.2,34.6,29.98,South,179,7.0,0.0,20,0.00,,,0.00,1016,WeatherHawk,2013-05-08 21:11:00,
2013-05-08 14:14:00,78.6,35.4,29.98,WNW,291,3.0,0.0,21,0.00,,,0.00,1017,WeatherHawk,2013-05-08 21:14:00,
2013-05-08 14:15:00,78.4,37.6,29.97,West,274,7.0,0.0,23,0.00,,,0.00,1020,WeatherHawk,2013-05-08 21:15:00,
2013-05-08 14:16:00,78.4,37.6,29.97,WSW,257,5.0,0.0,23,0.00,,,0.00,1028,WeatherHawk,2013-05-08 21:16:00,
2013-05-08 14:17:00,78.6,37.7,29.97,WSW,252,8.0,0.0,23,0.00,,,0.00,1029,WeatherHawk,2013-05-08 21:17:00,
2013-05-08 14:19:00,78.6,34.2,29.97,SSW,204,6.0,0.0,20,0.00,,,0.00,1039,WeatherHawk,2013-05-08 21:19:00,
2013-05-08 14:22:00,78.8,34.3,29.97,SSE,159,10.0,0.0,20,0.00,,,0.00,935,WeatherHawk,2013-05-08 21:22:00,
2013-05-08 14:23:00,78.4,34.0,29.97,SSE,164,5.0,0.0,20,0.00,,,0.00,624,WeatherHawk,2013-05-08 21:23:00,
2013-05-08 14:26:00,79.0,34.5,29.97,SW,224,5.0,0.0,20,0.00,,,0.00,806,WeatherHawk,2013-05-08 21:26:00,
2013-05-08 14:27:00,79.0,34.5,29.97,SW,224,5.0,-999.0,20,0.00,,,0.00,806,WeatherHawk,2013-05-08 21:27:00,
2013-05-08 14:28:00,79.3,37.2,29.97,SW,216,10.0,0.0,22,0.00,,,0.00,1068,WeatherHawk,2013-05-08 21:28:00,
2013-05-08 14:30:00,78.8,36.7,29.97,SSW,200,4.0,0.0,22,0.00,,,0.00,1077,WeatherHawk,2013-05-08 21:30:00,
2013-05-08 14:32:00,79.0,34.5,29.97,SSW,210,10.0,0.0,20,0.00,,,0.00,519,WeatherHawk,2013-05-08 21:32:00,
2013-05-08 14:33:00,78.8,36.7,29.97,SSW,207,6.0,0.0,22,0.00,,,0.00,732,WeatherHawk,2013-05-08 21:33:00,
2013-05-08 14:35:00,78.4,36.4,29.97,SW,216,3.0,0.0,22,0.00,,,0.00,597,WeatherHawk,2013-05-08 21:35:00,
2013-05-08 14:37:00,78.4,36.4,29.97,South,190,9.0,0.0,22,0.00,,,0.00,831,WeatherHawk,2013-05-08 21:37:00,
2013-05-08 14:38:00,78.8,36.7,29.97,WSW,237,7.0,0.0,22,0.00,,,0.00,774,WeatherHawk,2013-05-08 21:38:00,
2013-05-08 14:39:00,78.6,36.6,29.97,WSW,237,6.0,0.0,22,0.00,,,0.00,911,WeatherHawk,2013-05-08 21:39:00,
2013-05-08 14:42:00,78.6,36.6,29.97,SSW,204,4.0,-999.0,22,0.00,,,0.00,997,WeatherHawk,2013-05-08 21:42:00,
2013-05-08 14:43:00,78.8,35.5,29.96,NE,54,2.0,0.0,21,0.00,,,0.00,923,WeatherHawk,2013-05-08 21:43:00,
2013-05-08 14:47:00,78.1,36.1,29.96,NNW,338,1.0,-999.0,22,0.00,,,0.00,580,WeatherHawk,2013-05-08 21:47:00,
2013-05-08 14:49:00,78.8,34.3,29.96,SW,219,7.0,0.0,20,0.00,,,0.00,926,WeatherHawk,2013-05-08 21:49:00,
2013-05-08 14:50:00,79.0,34.5,29.96,WNW,284,4.0,0.0,20,0.00,,,0.00,803,WeatherHawk,2013-05-08 21:50:00,
2013-05-08 14:51:00,79.0,34.5,29.96,WSW,253,6.0,0.0,20,0.00,,,0.00,675,WeatherHawk,2013-05-08 21:51:00,
2013-05-08 14:52:00,79.0,34.5,29.96,WSW,253,6.0,-999.0,20,0.00,,,0.00,675,WeatherHawk,2013-05-08 21:52:00,
2013-05-08 14:54:00,78.6,31.6,29.96,SSE,167,2.0,0.0,18,0.00,,,0.00,546,WeatherHawk,2013-05-08 21:54:00,
2013-05-08 14:55:00,78.6,31.6,29.96,SSW,213,3.0,0.0,18,0.00,,,0.00,499,WeatherHawk,2013-05-08 21:55:00,
2013-05-08 14:57:00,78.8,34.3,29.96,West,262,4.0,0.0,20,0.00,,,0.00,997,WeatherHawk,2013-05-08 21:57:00,
2013-05-08 14:58:00,78.8,34.3,29.96,WSW,257,6.0,0.0,20,0.00,,,0.00,847,WeatherHawk,2013-05-08 21:58:00,
2013-05-08 15:01:00,79.2,34.6,29.96,West,278,6.0,0.0,20,0.00,,,0.00,743,WeatherHawk,2013-05-08 22:01:00,
2013-05-08 15:02:00,79.2,35.8,29.96,WNW,293,9.0,0.0,21,0.00,,,0.00,852,WeatherHawk,2013-05-08 22:02:00,
2013-05-08 15:03:00,79.2,35.8,29.96,NW,305,6.0,0.0,21,0.00,,,0.00,764,WeatherHawk,2013-05-08 22:03:00,
2013-05-08 15:07:00,78.8,35.5,29.96,WNW,291,4.0,0.0,21,0.00,,,0.00,817,WeatherHawk,2013-05-08 22:07:00,
2013-05-08 15:08:00,78.6,36.6,29.96,WNW,289,8.0,0.0,22,0.00,,,0.00,795,WeatherHawk,2013-05-08 22:08:00,
2013-05-08 15:11:00,79.0,35.7,29.95,NW,321,6.0,0.0,21,0.00,,,0.00,742,WeatherHawk,2013-05-08 22:11:00,
2013-05-08 15:12:00,79.0,35.7,29.95,NW,321,6.0,0.0,21,0.00,,,0.00,742,WeatherHawk,2013-05-08 22:12:00,
2013-05-08 15:13:00,79.0,34.5,29.95,WSW,258,9.0,0.0,20,0.00,,,0.00,703,WeatherHawk,2013-05-08 22:13:00,
2013-05-08 15:14:00,79.2,34.6,29.95,West,274,5.0,0.0,20,0.00,,,0.00,731,WeatherHawk,2013-05-08 22:14:00,
2013-05-08 15:15:00,79.0,33.2,29.95,West,276,6.0,0.0,19,0.00,,,0.00,751,WeatherHawk,2013-05-08 22:15:00,
2013-05-08 15:17:00,79.0,33.2,29.95,West,261,5.0,0.0,19,0.00,,,0.00,692,WeatherHawk,2013-05-08 22:17:00,
2013-05-08 15:18:00,79.2,34.6,29.95,West,279,6.0,0.0,20,0.00,,,0.00,753,WeatherHawk,2013-05-08 22:18:00,
2013-05-08 15:20:00,79.0,34.5,29.95,West,269,8.0,0.0,20,0.00,,,0.00,716,WeatherHawk,2013-05-08 22:20:00,
2013-05-08 15:22:00,79.2,34.6,29.95,West,271,6.0,0.0,20,0.00,,,0.00,713,WeatherHawk,2013-05-08 22:22:00,
2013-05-08 15:25:00,79.5,33.6,29.95,West,276,8.0,0.0,19,0.00,,,0.00,646,WeatherHawk,2013-05-08 22:25:00,
2013-05-08 15:26:00,79.5,33.6,29.95,West,278,8.0,0.0,19,0.00,,,0.00,643,WeatherHawk,2013-05-08 22:26:00,
2013-05-08 15:27:00,79.5,33.6,29.95,West,278,8.0,0.0,19,0.00,,,0.00,643,WeatherHawk,2013-05-08 22:27:00,
2013-05-08 15:32:00,79.2,35.8,29.95,West,273,9.0,-999.0,21,0.00,,,0.00,529,WeatherHawk,2013-05-08 22:32:00,
2013-05-08 15:33:00,79.3,36.0,29.94,NW,311,7.0,0.0,21,0.00,,,0.00,516,WeatherHawk,2013-05-08 22:33:00,
2013-05-08 15:35:00,79.2,37.0,29.94,NW,309,8.0,0.0,22,0.00,,,0.00,509,WeatherHawk,2013-05-08 22:35:00,
2013-05-08 15:37:00,79.3,36.0,29.94,NW,324,5.0,-999.0,21,0.00,,,0.00,508,WeatherHawk,2013-05-08 22:37:00,
2013-05-08 15:38:00,79.2,35.8,29.94,NW,305,6.0,0.0,21,0.00,,,0.00,450,WeatherHawk,2013-05-08 22:38:00,
2013-05-08 15:40:00,79.5,36.1,29.94,West,263,7.0,0.0,21,0.00,,,0.00,450,WeatherHawk,2013-05-08 22:40:00,
2013-05-08 15:42:00,79.5,36.1,29.94,West,263,7.0,0.0,21,0.00,,,0.00,450,WeatherHawk,2013-05-08 22:42:00,
2013-05-08 15:43:00,79.3,34.8,29.94,WNW,296,6.0,0.0,20,0.00,,,0.00,398,WeatherHawk,2013-05-08 22:43:00,
2013-05-08 15:47:00,79.3,34.8,29.94,NW,308,5.0,-999.0,20,0.00,,,0.00,403,WeatherHawk,2013-05-08 22:47:00,
2013-05-08 15:48:00,79.3,36.0,29.94,WSW,258,7.0,0.0,21,0.00,,,0.00,418,WeatherHawk,2013-05-08 22:48:00,
2013-05-08 15:52:00,79.2,35.8,29.94,WSW,256,5.0,0.0,21,0.00,,,0.00,545,WeatherHawk,2013-05-08 22:52:00,
2013-05-08 15:54:00,79.2,37.0,29.94,WNW,290,7.0,0.0,22,0.00,,,0.00,619,WeatherHawk,2013-05-08 22:54:00,
2013-05-08 15:55:00,79.2,37.0,29.94,WNW,291,5.0,0.0,22,0.00,,,0.00,585,WeatherHawk,2013-05-08 22:55:00,
2013-05-08 15:57:00,79.2,37.0,29.94,WNW,291,5.0,-999.0,22,0.00,,,0.00,585,WeatherHawk,2013-05-08 22:57:00,
2013-05-08 16:01:00,79.2,35.8,29.94,WNW,302,6.0,0.0,21,0.00,,,0.00,459,WeatherHawk,2013-05-08 23:01:00,
2013-05-08 16:02:00,79.2,35.8,29.94,WNW,302,6.0,0.0,21,0.00,,,0.00,459,WeatherHawk,2013-05-08 23:02:00,
2013-05-08 16:03:00,79.0,35.7,29.94,WNW,293,7.0,0.0,21,0.00,,,0.00,435,WeatherHawk,2013-05-08 23:03:00,
2013-05-08 16:08:00,78.8,36.7,29.94,WNW,300,5.0,0.0,22,0.00,,,0.00,425,WeatherHawk,2013-05-08 23:08:00,
2013-05-08 16:09:00,79.0,36.9,29.94,West,278,5.0,0.0,22,0.00,,,0.00,417,WeatherHawk,2013-05-08 23:09:00,
2013-05-08 16:11:00,79.2,35.8,29.94,NW,311,6.0,-999.0,21,0.00,,,0.00,389,WeatherHawk,2013-05-08 23:11:00,
2013-05-08 16:12:00,79.3,34.8,29.94,NW,312,7.0,-999.0,20,0.00,,,0.00,394,WeatherHawk,2013-05-08 23:12:00,
2013-05-08 16:14:00,79.2,35.8,29.94,NW,307,6.0,0.0,21,0.00,,,0.00,382,WeatherHawk,2013-05-08 23:14:00,
2013-05-08 16:16:00,79.2,37.0,29.93,NW,307,6.0,0.0,22,0.00,,,0.00,401,WeatherHawk,2013-05-08 23:16:00,
2013-05-08 16:17:00,79.2,37.0,29.94,NW,320,6.0,9.0,22,0.00,,,0.00,473,WeatherHawk,2013-05-08 23:17:00,
2013-05-08 16:18:00,79.0,36.9,29.93,WNW,300,6.0,0.0,22,0.00,,,0.00,439,WeatherHawk,2013-05-08 23:18:00,
2013-05-08 16:21:00,79.3,36.0,29.93,NW,320,6.0,0.0,21,0.00,,,0.00,411,WeatherHawk,2013-05-08 23:21:00,
2013-05-08 16:22:00,79.3,36.0,29.93,NW,313,4.0,9.0,21,0.00,,,0.00,480,WeatherHawk,2013-05-08 23:22:00,
2013-05-08 16:23:00,79.3,37.2,29.93,WNW,301,6.0,9.0,22,0.00,,,0.00,486,WeatherHawk,2013-05-08 23:23:00,
2013-05-08 16:26:00,79.3,34.8,29.93,WNW,299,4.0,9.0,20,0.00,,,0.00,620,WeatherHawk,2013-05-08 23:26:00,
2013-05-08 16:27:00,79.3,36.0,29.93,NW,319,4.0,-999.0,21,0.00,,,0.00,613,WeatherHawk,2013-05-08 23:27:00,
2013-05-08 16:30:00,79.7,36.3,29.93,WNW,283,7.0,9.0,21,0.00,,,0.00,371,WeatherHawk,2013-05-08 23:30:00,
2013-05-08 16:32:00,79.5,36.1,29.93,NW,304,2.0,9.0,21,0.00,,,0.00,495,WeatherHawk,2013-05-08 23:32:00,
2013-05-08 16:33:00,79.5,37.3,29.93,West,265,4.0,-999.0,22,0.00,,,0.00,584,WeatherHawk,2013-05-08 23:33:00,
2013-05-08 16:35:00,79.7,36.3,29.93,WNW,282,3.0,9.0,21,0.00,,,0.00,427,WeatherHawk,2013-05-08 23:35:00,
2013-05-08 16:37:00,79.7,36.3,29.93,West,270,2.0,9.0,21,0.00,,,0.00,499,WeatherHawk,2013-05-08 23:37:00,
2013-05-08 16:41:00,79.9,36.4,29.93,WNW,303,0.0,0.0,21,0.00,,,0.00,561,WeatherHawk,2013-05-08 23:41:00,
2013-05-08 16:42:00,80.1,34.1,29.93,WSW,252,5.0,0.0,19,0.00,,,0.00,551,WeatherHawk,2013-05-08 23:42:00,
2013-05-08 16:44:00,80.2,34.2,29.93,SW,231,6.0,0.0,19,0.00,,,0.00,529,WeatherHawk,2013-05-08 23:44:00,
2013-05-08 16:47:00,80.1,34.1,29.92,WSW,256,6.0,0.0,19,0.00,,,0.00,570,WeatherHawk,2013-05-08 23:47:00,
2013-05-08 16:48:00,80.1,34.1,29.92,WSW,257,4.0,0.0,19,0.00,,,0.00,567,WeatherHawk,2013-05-08 23:48:00,
2013-05-08 16:50:00,80.1,34.1,29.92,SW,228,5.0,9.0,19,0.00,,,0.00,582,WeatherHawk,2013-05-08 23:50:00,
2013-05-08 16:51:00,80.1,34.1,29.92,SW,223,3.0,9.0,19,0.00,,,0.00,551,WeatherHawk,2013-05-08 23:51:00,
2013-05-08 16:52:00,80.1,34.1,29.92,SW,223,3.0,-999.0,19,0.00,,,0.00,551,WeatherHawk,2013-05-08 23:52:00,
2013-05-08 16:57:00,80.4,35.7,29.92,West,270,9.0,9.0,20,0.00,,,0.00,541,WeatherHawk,2013-05-08 23:57:00,
2013-05-08 16:58:00,80.2,34.2,29.92,West,272,7.0,0.0,19,0.00,,,0.00,548,WeatherHawk,2013-05-08 23:58:00,
2013-05-08 17:00:00,79.9,33.9,29.92,WNW,298,4.0,0.0,19,0.00,,,0.00,528,WeatherHawk,2013-05-09 00:00:00,
2013-05-08 17:02:00,80.1,34.1,29.92,WNW,293,2.0,0.0,19,0.00,,,0.00,508,WeatherHawk,2013-05-09 00:02:00,
2013-05-08 17:05:00,80.4,35.7,29.92,WNW,285,4.0,0.0,20,0.00,,,0.00,514,WeatherHawk,2013-05-09 00:05:00,
2013-05-08 17:06:00,80.4,35.7,29.92,NW,306,6.0,0.0,20,0.00,,,0.00,520,WeatherHawk,2013-05-09 00:06:00,
2013-05-08 17:09:00,80.2,35.5,29.92,NW,310,3.0,0.0,20,0.00,,,0.00,484,WeatherHawk,2013-05-09 00:09:00,
2013-05-08 17:12:00,80.4,35.7,29.92,WNW,284,4.0,0.0,20,0.00,,,0.00,476,WeatherHawk,2013-05-09 00:12:00,
2013-05-08 17:15:00,80.2,35.5,29.92,West,281,3.0,9.0,20,0.00,,,0.00,476,WeatherHawk,2013-05-09 00:15:00,
2013-05-08 17:17:00,80.2,35.5,29.92,WNW,301,8.0,9.0,20,0.00,,,0.00,475,WeatherHawk,2013-05-09 00:17:00,
2013-05-08 17:18:00,80.4,34.4,29.92,West,278,6.0,0.0,19,0.00,,,0.00,475,WeatherHawk,2013-05-09 00:18:00,
2013-05-08 17:21:00,80.4,35.7,29.92,West,274,5.0,0.0,20,0.00,,,0.00,474,WeatherHawk,2013-05-09 00:21:00,
2013-05-08 17:22:00,80.4,35.7,29.92,West,274,5.0,0.0,20,0.00,,,0.00,474,WeatherHawk,2013-05-09 00:22:00,
2013-05-08 17:24:00,80.2,34.2,29.91,West,272,6.0,0.0,19,0.00,,,0.00,465,WeatherHawk,2013-05-09 00:24:00,
2013-05-08 17:27:00,80.2,35.5,29.91,WNW,300,4.0,0.0,20,0.00,,,0.00,454,WeatherHawk,2013-05-09 00:27:00,
2013-05-08 17:30:00,80.2,35.5,29.91,WSW,241,4.0,0.0,20,0.00,,,0.00,437,WeatherHawk,2013-05-09 00:30:00,
2013-05-08 17:31:00,80.4,36.9,29.91,West,264,6.0,0.0,21,0.00,,,0.00,396,WeatherHawk,2013-05-09 00:31:00,
2013-05-08 17:32:00,80.4,36.9,29.91,West,264,6.0,0.0,21,0.00,,,0.00,396,WeatherHawk,2013-05-09 00:32:00,
2013-05-08 17:33:00,80.4,35.7,29.91,West,262,9.0,0.0,20,0.00,,,0.00,388,WeatherHawk,2013-05-09 00:33:00,
2013-05-08 17:34:00,80.4,34.4,29.91,WSW,252,7.0,0.0,19,0.00,,,0.00,384,WeatherHawk,2013-05-09 00:34:00,
2013-05-08 17:37:00,80.2,34.2,29.91,West,263,6.0,0.0,19,0.00,,,0.00,386,WeatherHawk,2013-05-09 00:37:00,
2013-05-08 17:38:00,80.2,34.2,29.91,SW,229,6.0,0.0,19,0.00,,,0.00,381,WeatherHawk,2013-05-09 00:38:00,
2013-05-08 17:44:00,80.4,35.7,29.91,SW,232,5.0,10.0,20,0.00,,,0.00,315,WeatherHawk,2013-05-09 00:44:00,
2013-05-08 17:46:00,80.2,35.5,29.91,WSW,242,4.0,10.0,20,0.00,,,0.00,329,WeatherHawk,2013-05-09 00:46:00,
2013-05-08 17:47:00,80.2,35.5,29.91,South,191,3.0,10.0,20,0.00,,,0.00,332,WeatherHawk,2013-05-09 00:47:00,
2013-05-08 17:49:00,80.1,34.1,29.91,WSW,245,5.0,0.0,19,0.00,,,0.00,347,WeatherHawk,2013-05-09 00:49:00,
2013-05-08 17:51:00,80.1,34.1,29.91,SW,225,5.0,8.0,19,0.00,,,0.00,341,WeatherHawk,2013-05-09 00:51:00,
2013-05-08 17:52:00,80.1,34.1,29.91,WSW,241,6.0,8.0,19,0.00,,,0.00,346,WeatherHawk,2013-05-09 00:52:00,
2013-05-08 17:53:00,80.2,34.2,29.91,SW,231,6.0,8.0,19,0.00,,,0.00,350,WeatherHawk,2013-05-09 00:53:00,
2013-05-08 17:54:00,80.2,34.2,29.91,WSW,256,5.0,8.0,19,0.00,,,0.00,320,WeatherHawk,2013-05-09 00:54:00,
2013-05-08 17:55:00,80.2,34.2,29.91,WSW,243,6.0,8.0,19,0.00,,,0.00,218,WeatherHawk,2013-05-09 00:55:00,
2013-05-08 18:00:00,80.1,35.4,29.91,WNW,284,3.0,0.0,20,0.00,,,0.00,140,WeatherHawk,2013-05-09 01:00:00,
2013-05-08 18:01:00,79.9,35.2,29.91,WSW,258,8.0,0.0,20,0.00,,,0.00,134,WeatherHawk,2013-05-09 01:01:00,
2013-05-08 18:07:00,79.5,34.9,29.91,WSW,250,6.0,0.0,20,0.00,,,0.00,161,WeatherHawk,2013-05-09 01:07:00,
2013-05-08 18:09:00,79.5,34.9,29.91,WSW,253,5.0,0.0,20,0.00,,,0.00,200,WeatherHawk,2013-05-09 01:09:00,
2013-05-08 18:12:00,79.5,34.9,29.91,West,274,4.0,8.0,20,0.00,,,0.00,139,WeatherHawk,2013-05-09 01:12:00,
2013-05-08 18:17:00,79.3,34.8,29.91,WNW,294,4.0,8.0,20,0.00,,,0.00,134,WeatherHawk,2013-05-09 01:17:00,
2013-05-08 18:19:00,79.3,34.8,29.91,WSW,245,1.0,0.0,20,0.00,,,0.00,157,WeatherHawk,2013-05-09 01:19:00,
2013-05-08 18:22:00,79.5,34.9,29.91,WSW,238,3.0,0.0,20,0.00,,,0.00,170,WeatherHawk,2013-05-09 01:22:00,
2013-05-08 18:23:00,79.7,33.8,29.91,SW,218,3.0,0.0,19,0.00,,,0.00,190,WeatherHawk,2013-05-09 01:23:00,
2013-05-08 18:25:00,79.7,33.8,29.91,SW,219,2.0,0.0,19,0.00,,,0.00,170,WeatherHawk,2013-05-09 01:25:00,
2013-05-08 18:27:00,79.7,35.1,29.91,SW,222,3.0,0.0,20,0.00,,,0.00,132,WeatherHawk,2013-05-09 01:27:00,
2013-05-08 18:29:00,79.5,34.9,29.91,SW,214,5.0,0.0,20,0.00,,,0.00,179,WeatherHawk,2013-05-09 01:29:00,
2013-05-08 18:30:00,79.5,34.9,29.91,SW,236,2.0,0.0,20,0.00,,,0.00,164,WeatherHawk,2013-05-09 01:30:00,
2013-05-08 18:32:00,79.3,34.8,29.91,West,261,1.0,0.0,20,0.00,,,0.00,155,WeatherHawk,2013-05-09 01:32:00,
2013-05-08 18:35:00,79.7,35.1,29.91,West,259,2.0,0.0,20,0.00,,,0.00,144,WeatherHawk,2013-05-09 01:35:00,
2013-05-08 18:36:00,79.7,35.1,29.91,WSW,247,2.0,0.0,20,0.00,,,0.00,151,WeatherHawk,2013-05-09 01:36:00,
2013-05-08 18:37:00,79.9,35.2,29.91,WSW,248,2.0,0.0,20,0.00,,,0.00,158,WeatherHawk,2013-05-09 01:37:00,
2013-05-08 18:42:00,79.9,35.2,29.91,SW,221,4.0,5.0,20,0.00,,,0.00,129,WeatherHawk,2013-05-09 01:42:00,
2013-05-08 18:43:00,79.7,35.1,29.91,SW,222,4.0,5.0,20,0.00,,,0.00,125,WeatherHawk,2013-05-09 01:43:00,
2013-05-08 18:45:00,79.5,34.9,29.91,West,260,2.0,5.0,20,0.00,,,0.00,110,WeatherHawk,2013-05-09 01:45:00,
2013-05-08 18:47:00,79.5,34.9,29.91,West,260,2.0,5.0,20,0.00,,,0.00,110,WeatherHawk,2013-05-09 01:47:00,
2013-05-08 18:50:00,79.3,34.8,29.91,WSW,239,5.0,0.0,20,0.00,,,0.00,72,WeatherHawk,2013-05-09 01:50:00,
2013-05-08 18:52:00,79.3,34.8,29.91,SW,223,3.0,0.0,20,0.00,,,0.00,81,WeatherHawk,2013-05-09 01:52:00,
2013-05-08 18:54:00,79.2,34.6,29.91,WSW,239,3.0,0.0,20,0.00,,,0.00,73,WeatherHawk,2013-05-09 01:54:00,
2013-05-08 18:57:00,79.2,34.6,29.91,SW,219,1.0,0.0,20,0.00,,,0.00,66,WeatherHawk,2013-05-09 01:57:00,
2013-05-08 19:00:00,79.2,34.6,29.91,SW,215,3.0,0.0,20,0.00,,,0.00,60,WeatherHawk,2013-05-09 02:00:00,
2013-05-08 19:02:00,79.0,34.5,29.91,South,189,2.0,-999.0,20,0.00,,,0.00,54,WeatherHawk,2013-05-09 02:02:00,
2013-05-08 19:03:00,79.0,35.7,29.91,SSW,212,1.0,0.0,21,0.00,,,0.00,51,WeatherHawk,2013-05-09 02:03:00,
2013-05-08 19:06:00,79.0,34.5,29.91,SW,227,3.0,0.0,20,0.00,,,0.00,44,WeatherHawk,2013-05-09 02:06:00,
2013-05-08 19:07:00,79.0,35.7,29.91,SSE,166,3.0,0.0,21,0.00,,,0.00,43,WeatherHawk,2013-05-09 02:07:00,
2013-05-08 19:09:00,78.8,35.5,29.91,South,185,2.0,0.0,21,0.00,,,0.00,36,WeatherHawk,2013-05-09 02:09:00,
2013-05-08 19:11:00,78.6,35.4,29.91,SSE,164,2.0,0.0,21,0.00,,,0.00,33,WeatherHawk,2013-05-09 02:11:00,
2013-05-08 19:12:00,78.6,35.4,29.91,South,189,3.0,0.0,21,0.00,,,0.00,31,WeatherHawk,2013-05-09 02:12:00,
2013-05-08 19:16:00,78.6,35.4,29.91,SSW,198,4.0,0.0,21,0.00,,,0.00,21,WeatherHawk,2013-05-09 02:16:00,
2013-05-08 19:17:00,78.6,35.4,29.91,SSW,198,4.0,0.0,21,0.00,,,0.00,21,WeatherHawk,2013-05-09 02:17:00,
2013-05-08 19:18:00,78.4,35.3,29.91,South,189,3.0,0.0,21,0.00,,,0.00,19,WeatherHawk,2013-05-09 02:18:00,
2013-05-08 19:19:00,78.4,35.3,29.91,South,191,2.0,0.0,21,0.00,,,0.00,16,WeatherHawk,2013-05-09 02:19:00,
2013-05-08 19:22:00,78.4,35.3,29.91,SSW,202,3.0,-999.0,21,0.00,,,0.00,14,WeatherHawk,2013-05-09 02:22:00,
2013-05-08 19:23:00,78.4,35.3,29.91,SSW,194,2.0,0.0,21,0.00,,,0.00,11,WeatherHawk,2013-05-09 02:23:00,
2013-05-08 19:25:00,78.3,35.1,29.91,South,177,2.0,0.0,21,0.00,,,0.00,9,WeatherHawk,2013-05-09 02:25:00,
2013-05-08 19:26:00,78.3,35.1,29.91,SSW,200,2.0,0.0,21,0.00,,,0.00,6,WeatherHawk,2013-05-09 02:26:00,
2013-05-08 19:30:00,78.3,35.1,29.91,South,190,2.0,0.0,21,0.00,,,0.00,3,WeatherHawk,2013-05-09 02:30:00,
2013-05-08 19:31:00,78.3,35.1,29.91,South,191,3.0,0.0,21,0.00,,,0.00,2,WeatherHawk,2013-05-09 02:31:00,
2013-05-08 19:32:00,78.3,35.1,29.91,South,191,3.0,-999.0,21,0.00,,,0.00,2,WeatherHawk,2013-05-09 02:32:00,
2013-05-08 19:36:00,78.1,35.0,29.91,South,185,2.0,0.0,21,0.00,,,0.00,1,WeatherHawk,2013-05-09 02:36:00,
2013-05-08 19:37:00,78.1,35.0,29.91,South,179,2.0,0.0,21,0.00,,,0.00,1,WeatherHawk,2013-05-09 02:37:00,
2013-05-08 19:42:00,78.1,35.0,29.91,SSE,157,2.0,0.0,21,0.00,,,0.00,0,WeatherHawk,2013-05-09 02:42:00,
2013-05-08 19:43:00,77.9,34.8,29.91,SE,142,2.0,0.0,21,0.00,,,0.00,0,WeatherHawk,2013-05-09 02:43:00,
2013-05-08 19:45:00,77.9,34.8,29.91,SE,138,2.0,0.0,21,0.00,,,0.00,1,WeatherHawk,2013-05-09 02:45:00,
2013-05-08 19:47:00,77.7,34.7,29.91,ESE,115,2.0,0.0,21,0.00,,,0.00,0,WeatherHawk,2013-05-09 02:47:00,
2013-05-08 19:49:00,77.7,34.7,29.91,ESE,119,2.0,0.0,21,0.00,,,0.00,0,WeatherHawk,2013-05-09 02:49:00,
2013-05-08 19:50:00,77.5,35.7,29.91,SE,125,2.0,0.0,22,0.00,,,0.00,0,WeatherHawk,2013-05-09 02:50:00,
2013-05-08 19:56:00,77.0,36.3,29.92,SE,124,3.0,0.0,23,0.00,,,0.00,0,WeatherHawk,2013-05-09 02:56:00,
2013-05-08 19:57:00,77.0,36.3,29.92,SE,124,3.0,-999.0,23,0.00,,,0.00,0,WeatherHawk,2013-05-09 02:57:00,
2013-05-08 20:02:00,76.8,36.2,29.92,SE,127,4.0,0.0,23,0.00,,,0.00,1,WeatherHawk,2013-05-09 03:02:00,
2013-05-08 20:03:00,76.5,35.9,29.92,SE,129,3.0,0.0,23,0.00,,,0.00,0,WeatherHawk,2013-05-09 03:03:00,
2013-05-08 20:07:00,76.3,35.7,29.92,SE,135,4.0,0.0,23,0.00,,,0.00,0,WeatherHawk,2013-05-09 03:07:00,
2013-05-08 20:08:00,76.3,35.7,29.92,SE,135,3.0,0.0,23,0.00,,,0.00,1,WeatherHawk,2013-05-09 03:08:00,
2013-05-08 20:10:00,76.3,35.7,29.92,SE,135,3.0,0.0,23,0.00,,,0.00,0,WeatherHawk,2013-05-09 03:10:00,
2013-05-08 20:12:00,76.3,35.7,29.92,SE,145,3.0,0.0,23,0.00,,,0.00,0,WeatherHawk,2013-05-09 03:12:00,
2013-05-08 20:15:00,76.1,35.6,29.92,SE,142,3.0,0.0,23,0.00,,,0.00,0,WeatherHawk,2013-05-09 03:15:00,
2013-05-08 20:17:00,76.1,35.6,29.92,SE,142,3.0,0.0,23,0.00,,,0.00,0,WeatherHawk,2013-05-09 03:17:00,
2013-05-08 20:22:00,75.7,35.3,29.92,SE,144,2.0,0.0,23,0.00,,,0.00,1,WeatherHawk,2013-05-09 03:22:00,
2013-05-08 20:23:00,75.6,36.2,29.92,SE,146,3.0,0.0,24,0.00,,,0.00,1,WeatherHawk,2013-05-09 03:23:00,
2013-05-08 20:27:00,75.2,35.9,29.92,SSE,148,3.0,0.0,24,0.00,,,0.00,0,WeatherHawk,2013-05-09 03:27:00,
2013-05-08 20:29:00,75.0,35.8,29.92,SSE,156,3.0,0.0,24,0.00,,,0.00,0,WeatherHawk,2013-05-09 03:29:00,
2013-05-08 20:31:00,75.0,36.8,29.92,SSE,155,3.0,0.0,25,0.00,,,0.00,0,WeatherHawk,2013-05-09 03:31:00,
2013-05-08 20:32:00,75.0,36.8,29.92,SSE,155,3.0,0.0,25,0.00,,,0.00,0,WeatherHawk,2013-05-09 03:32:00,
2013-05-08 20:37:00,74.8,36.6,29.92,SSE,150,3.0,0.0,25,0.00,,,0.00,0,WeatherHawk,2013-05-09 03:37:00,
2013-05-08 20:42:00,74.5,36.3,29.92,SSE,148,3.0,-999.0,25,0.00,,,0.00,0,WeatherHawk,2013-05-09 03:42:00,
2013-05-08 20:43:00,74.5,36.3,29.92,SSE,151,3.0,0.0,25,0.00,,,0.00,0,WeatherHawk,2013-05-09 03:43:00,
2013-05-08 20:45:00,74.3,36.2,29.92,SSE,149,3.0,0.0,25,0.00,,,0.00,0,WeatherHawk,2013-05-09 03:45:00,
2013-05-08 20:47:00,74.3,36.2,29.92,SSE,155,3.0,0.0,25,0.00,,,0.00,0,WeatherHawk,2013-05-09 03:47:00,
2013-05-08 20:50:00,74.1,37.0,29.92,SSE,151,3.0,0.0,26,0.00,,,0.00,0,WeatherHawk,2013-05-09 03:50:00,
2013-05-08 20:51:00,74.1,37.0,29.92,SSE,151,3.0,0.0,26,0.00,,,0.00,0,WeatherHawk,2013-05-09 03:51:00,
2013-05-08 20:52:00,74.1,37.0,29.92,SSE,151,3.0,0.0,26,0.00,,,0.00,0,WeatherHawk,2013-05-09 03:52:00,
2013-05-08 20:57:00,73.9,36.9,29.93,SSE,156,2.0,0.0,26,0.00,,,0.00,0,WeatherHawk,2013-05-09 03:57:00,
2013-05-08 21:00:00,73.9,36.9,29.93,SSE,147,3.0,0.0,26,0.00,,,0.00,0,WeatherHawk,2013-05-09 04:00:00,
2013-05-08 21:02:00,73.9,36.9,29.93,SSE,147,3.0,0.0,26,0.00,,,0.00,0,WeatherHawk,2013-05-09 04:02:00,
2013-05-08 21:03:00,73.8,36.7,29.93,SSE,154,2.0,0.0,26,0.00,,,0.00,0,WeatherHawk,2013-05-09 04:03:00,
2013-05-08 21:07:00,73.6,37.5,29.93,SSE,157,2.0,-999.0,27,0.00,,,0.00,0,WeatherHawk,2013-05-09 04:07:00,
2013-05-08 21:08:00,73.6,37.5,29.93,SSE,155,2.0,0.0,27,0.00,,,0.00,0,WeatherHawk,2013-05-09 04:08:00,
2013-05-08 21:09:00,73.6,37.5,29.93,SSE,157,3.0,0.0,27,0.00,,,0.00,1,WeatherHawk,2013-05-09 04:09:00,
2013-05-08 21:11:00,73.4,37.4,29.93,SSE,150,2.0,0.0,27,0.00,,,0.00,0,WeatherHawk,2013-05-09 04:11:00,
2013-05-08 21:13:00,73.4,37.4,29.93,SSE,148,3.0,0.0,27,0.00,,,0.00,0,WeatherHawk,2013-05-09 04:13:00,
2013-05-08 21:14:00,73.4,37.4,29.93,SSE,152,3.0,0.0,27,0.00,,,0.00,0,WeatherHawk,2013-05-09 04:14:00,
2013-05-08 21:17:00,73.2,37.2,29.93,SSE,149,3.0,-999.0,27,0.00,,,0.00,0,WeatherHawk,2013-05-09 04:17:00,
2013-05-08 21:18:00,73.2,37.2,29.93,SSE,153,3.0,0.0,27,0.00,,,0.00,0,WeatherHawk,2013-05-09 04:18:00,
2013-05-08 21:19:00,73.2,37.2,29.93,SSE,152,3.0,0.0,27,0.00,,,0.00,0,WeatherHawk,2013-05-09 04:19:00,
2013-05-08 21:23:00,73.0,37.1,29.93,SSE,162,3.0,0.0,27,0.00,,,0.00,0,WeatherHawk,2013-05-09 04:23:00,
2013-05-08 21:24:00,72.9,36.9,29.93,SSE,165,3.0,0.0,27,0.00,,,0.00,0,WeatherHawk,2013-05-09 04:24:00,
2013-05-08 21:25:00,72.9,36.9,29.93,SSE,164,3.0,0.0,27,0.00,,,0.00,0,WeatherHawk,2013-05-09 04:25:00,
2013-05-08 21:26:00,72.9,36.9,29.93,SSE,165,4.0,0.0,27,0.00,,,0.00,0,WeatherHawk,2013-05-09 04:26:00,
2013-05-08 21:29:00,72.9,36.9,29.93,SSE,168,3.0,0.0,27,0.00,,,0.00,0,WeatherHawk,2013-05-09 04:29:00,
2013-05-08 21:31:00,72.9,37.8,29.94,SSE,167,3.0,4.0,28,0.00,,,0.00,0,WeatherHawk,2013-05-09 04:31:00,
2013-05-08 21:32:00,72.9,37.8,29.94,SSE,168,3.0,4.0,28,0.00,,,0.00,0,WeatherHawk,2013-05-09 04:32:00,
2013-05-08 21:34:00,72.9,36.9,29.94,SSE,167,3.0,4.0,27,0.00,,,0.00,0,WeatherHawk,2013-05-09 04:34:00,
2013-05-08 21:37:00,72.9,36.9,29.94,SSE,168,3.0,-999.0,27,0.00,,,0.00,0,WeatherHawk,2013-05-09 04:37:00,
2013-05-08 21:38:00,73.0,37.1,29.94,South,170,3.0,0.0,27,0.00,,,0.00,0,WeatherHawk,2013-05-09 04:38:00,
2013-05-08 21:42:00,73.0,37.1,29.94,South,172,4.0,0.0,27,0.00,,,0.00,1,WeatherHawk,2013-05-09 04:42:00,
2013-05-08 21:44:00,73.0,37.1,29.94,South,170,4.0,0.0,27,0.00,,,0.00,0,WeatherHawk,2013-05-09 04:44:00,
2013-05-08 21:47:00,73.2,37.2,29.94,South,171,4.0,0.0,27,0.00,,,0.00,0,WeatherHawk,2013-05-09 04:47:00,
2013-05-08 21:48:00,73.2,37.2,29.94,South,171,4.0,0.0,27,0.00,,,0.00,0,WeatherHawk,2013-05-09 04:48:00,
2013-05-08 21:51:00,73.0,37.1,29.94,South,170,4.0,4.0,27,0.00,,,0.00,0,WeatherHawk,2013-05-09 04:51:00,
2013-05-08 21:52:00,73.0,37.1,29.94,South,170,4.0,4.0,27,0.00,,,0.00,0,WeatherHawk,2013-05-09 04:52:00,
2013-05-08 21:57:00,73.0,37.1,29.94,South,170,4.0,4.0,27,0.00,,,0.00,0,WeatherHawk,2013-05-09 04:57:00,
2013-05-08 22:00:00,72.5,36.6,29.94,SSW,201,3.0,0.0,27,0.00,,,0.00,0,WeatherHawk,2013-05-09 05:00:00,
2013-05-08 22:02:00,72.7,36.8,20.04,SW,234,2.0,0.0,27,0.00,,,0.00,0,WeatherHawk,2013-05-09 05:02:00,
2013-05-08 22:04:00,72.0,41.3,29.94,WNW,286,11.0,11.0,33,0.00,,,0.00,0,WeatherHawk,2013-05-09 05:04:00,
2013-05-08 22:07:00,71.1,42.7,29.94,WNW,289,8.0,8.0,36,0.00,,,0.00,0,WeatherHawk,2013-05-09 05:07:00,
2013-05-08 22:12:00,69.4,44.7,29.95,West,281,6.0,0.0,41,0.00,,,0.00,0,WeatherHawk,2013-05-09 05:12:00,
2013-05-08 22:13:00,68.9,45.5,29.95,West,281,6.0,13.0,43,0.00,,,0.00,0,WeatherHawk,2013-05-09 05:13:00,
2013-05-08 22:15:00,68.4,46.8,29.95,West,278,5.0,13.0,46,0.00,,,0.00,0,WeatherHawk,2013-05-09 05:15:00,
2013-05-08 22:17:00,68.0,47.0,29.95,WNW,284,6.0,13.0,47,0.00,,,0.00,0,WeatherHawk,2013-05-09 05:17:00,
2013-05-08 22:18:00,67.6,47.2,29.95,WNW,290,6.0,0.0,48,0.00,,,0.00,0,WeatherHawk,2013-05-09 05:18:00,
2013-05-08 22:22:00,67.1,47.8,29.95,West,278,6.0,0.0,50,0.00,,,0.00,0,WeatherHawk,2013-05-09 05:22:00,
2013-05-08 22:23:00,66.6,47.9,29.95,WNW,285,7.0,0.0,51,0.00,,,0.00,0,WeatherHawk,2013-05-09 05:23:00,
2013-05-08 22:25:00,66.4,47.7,29.95,WNW,289,7.0,0.0,51,0.00,,,0.00,0,WeatherHawk,2013-05-09 05:25:00,
2013-05-08 22:28:00,66.0,47.9,29.95,WNW,285,5.0,0.0,52,0.00,,,0.00,0,WeatherHawk,2013-05-09 05:28:00,
2013-05-08 22:31:00,65.7,48.1,29.95,WNW,289,5.0,0.0,53,0.00,,,0.00,0,WeatherHawk,2013-05-09 05:31:00,
2013-05-08 22:32:00,65.7,48.1,29.95,WNW,289,5.0,0.0,53,0.00,,,0.00,0,WeatherHawk,2013-05-09 05:32:00,
2013-05-08 22:37:00,65.5,48.4,29.95,WNW,288,5.0,0.0,54,0.00,,,0.00,0,WeatherHawk,2013-05-09 05:37:00,
2013-05-08 22:40:00,65.1,48.1,29.95,WNW,285,4.0,0.0,54,0.00,,,0.00,0,WeatherHawk,2013-05-09 05:40:00,
2013-05-08 22:41:00,65.1,48.1,29.95,WNW,285,4.0,0.0,54,0.00,,,0.00,0,WeatherHawk,2013-05-09 05:41:00,
2013-05-08 22:42:00,65.1,48.1,29.95,WNW,287,5.0,0.0,54,0.00,,,0.00,0,WeatherHawk,2013-05-09 05:42:00,
2013-05-08 22:45:00,65.1,48.1,29.95,West,278,5.0,0.0,54,0.00,,,0.00,0,WeatherHawk,2013-05-09 05:45:00,
2013-05-08 22:46:00,65.1,48.1,29.95,West,271,4.0,0.0,54,0.00,,,0.00,0,WeatherHawk,2013-05-09 05:46:00,
2013-05-08 22:47:00,65.1,48.5,29.95,WSW,257,3.0,0.0,55,0.00,,,0.00,0,WeatherHawk,2013-05-09 05:47:00,
2013-05-08 22:51:00,64.8,48.2,29.96,SW,215,5.0,0.0,55,0.00,,,0.00,0,WeatherHawk,2013-05-09 05:51:00,
2013-05-08 22:53:00,64.8,48.2,29.96,SSW,210,5.0,0.0,55,0.00,,,0.00,0,WeatherHawk,2013-05-09 05:53:00,
2013-05-08 22:54:00,64.8,47.7,29.96,SW,228,6.0,0.0,54,0.00,,,0.00,0,WeatherHawk,2013-05-09 05:54:00,
2013-05-08 22:56:00,65.5,47.4,29.96,South,189,4.0,0.0,52,0.00,,,0.00,0,WeatherHawk,2013-05-09 05:56:00,
2013-05-08 22:58:00,65.8,47.2,29.96,SW,220,4.0,0.0,51,0.00,,,0.00,0,WeatherHawk,2013-05-09 05:58:00,
2013-05-08 22:59:00,66.0,47.4,29.96,SSW,207,5.0,7.0,51,0.00,,,0.00,0,WeatherHawk,2013-05-09 05:59:00,
2013-05-08 23:02:00,66.4,47.2,29.96,WSW,254,5.0,7.0,50,0.00,,,0.00,0,WeatherHawk,2013-05-09 06:02:00,
2013-05-08 23:04:00,66.6,46.8,29.96,West,267,6.0,7.0,49,0.00,,,0.00,0,WeatherHawk,2013-05-09 06:04:00,
2013-05-08 23:06:00,66.7,47.0,29.96,WSW,257,5.0,7.0,49,0.00,,,0.00,0,WeatherHawk,2013-05-09 06:06:00,
2013-05-08 23:07:00,66.7,47.0,29.96,WSW,251,3.0,0.0,49,0.00,,,0.00,0,WeatherHawk,2013-05-09 06:07:00,
2013-05-08 23:09:00,66.7,47.5,29.96,West,262,6.0,0.0,50,0.00,,,0.00,0,WeatherHawk,2013-05-09 06:09:00,
2013-05-08 23:11:00,66.7,47.5,29.96,WSW,254,4.0,-999.0,50,0.00,,,0.00,0,WeatherHawk,2013-05-09 06:11:00,
2013-05-08 23:13:00,66.6,47.3,29.96,WSW,258,4.0,0.0,50,0.00,,,0.00,0,WeatherHawk,2013-05-09 06:13:00,
2013-05-08 23:17:00,66.4,47.2,29.96,WSW,244,4.0,0.0,50,0.00,,,0.00,0,WeatherHawk,2013-05-09 06:17:00,
2013-05-08 23:18:00,66.4,47.7,29.96,West,261,4.0,0.0,51,0.00,,,0.00,0,WeatherHawk,2013-05-09 06:18:00,
2013-05-08 23:21:00,66.4,47.2,29.96,West,277,5.0,0.0,50,0.00,,,0.00,0,WeatherHawk,2013-05-09 06:21:00,
2013-05-08 23:22:00,66.4,47.2,29.96,West,264,4.0,-999.0,50,0.00,,,0.00,0,WeatherHawk,2013-05-09 06:22:00,
2013-05-08 23:25:00,66.6,47.3,29.96,WSW,257,3.0,0.0,50,0.00,,,0.00,0,WeatherHawk,2013-05-09 06:25:00,
2013-05-08 23:27:00,66.6,47.3,29.96,WSW,255,3.0,0.0,50,0.00,,,0.00,0,WeatherHawk,2013-05-09 06:27:00,
2013-05-08 23:28:00,66.4,47.2,29.96,WSW,247,2.0,0.0,50,0.00,,,0.00,0,WeatherHawk,2013-05-09 06:28:00,
2013-05-08 23:31:00,66.4,47.2,29.96,WSW,254,4.0,0.0,50,0.00,,,0.00,0,WeatherHawk,2013-05-09 06:31:00,
2013-05-08 23:32:00,66.4,47.2,29.96,WSW,244,4.0,0.0,50,0.00,,,0.00,0,WeatherHawk,2013-05-09 06:32:00,
2013-05-08 23:34:00,66.4,46.6,29.96,WSW,239,3.0,0.0,49,0.00,,,0.00,0,WeatherHawk,2013-05-09 06:34:00,
2013-05-08 23:35:00,66.6,46.8,29.96,West,278,3.0,0.0,49,0.00,,,0.00,0,WeatherHawk,2013-05-09 06:35:00,
2013-05-08 23:37:00,66.6,46.8,29.96,West,277,2.0,0.0,49,0.00,,,0.00,0,WeatherHawk,2013-05-09 06:37:00,
2013-05-08 23:40:00,66.4,46.6,29.96,WNW,294,2.0,0.0,49,0.00,,,0.00,1,WeatherHawk,2013-05-09 06:40:00,
2013-05-08 23:42:00,66.6,46.8,29.96,WNW,285,4.0,0.0,49,0.00,,,0.00,1,WeatherHawk,2013-05-09 06:42:00,
2013-05-08 23:45:00,66.7,47.0,29.96,WNW,301,4.0,0.0,49,0.00,,,0.00,1,WeatherHawk,2013-05-09 06:45:00,
2013-05-08 23:47:00,66.7,47.0,29.96,WNW,285,4.0,0.0,49,0.00,,,0.00,0,WeatherHawk,2013-05-09 06:47:00,
2013-05-08 23:50:00,66.7,46.4,29.96,WNW,286,4.0,0.0,48,0.00,,,0.00,0,WeatherHawk,2013-05-09 06:50:00,
2013-05-08 23:52:00,66.7,46.4,29.96,WNW,292,5.0,-999.0,48,0.00,,,0.00,0,WeatherHawk,2013-05-09 06:52:00,
2013-05-08 23:54:00,66.7,46.4,29.96,WNW,287,5.0,6.0,48,0.00,,,0.00,0,WeatherHawk,2013-05-09 06:54:00,
2013-05-08 23:55:00,66.7,46.4,29.96,WNW,297,3.0,6.0,48,0.00,,,0.00,0,WeatherHawk,2013-05-09 06:55:00,
2013-05-08 23:56:00,66.7,47.0,29.96,WNW,287,3.0,6.0,49,0.00,,,0.00,0,WeatherHawk,2013-05-09 06:56:00,
2013-05-08 23:57:00,66.7,47.0,29.96,WNW,288,3.0,6.0,49,0.00,,,0.00,0,WeatherHawk,2013-05-09 06:57:00,
2013-05-08 23:59:00,66.6,46.8,29.96,West,281,2.0,6.0,49,0.00,,,0.00,0,WeatherHawk,2013-05-09 06:59:00,